| time (UTC) | temp C | wind direction | speed KPH | gust KPH | rain 1hr cm | rain 24hr cm | rain mn cm | humidity % | barometer mb |
| 20260504110703 | 22 | 245 | 9.7 | 16.1 | 0.00 | 0.00 | 0.00 | 42 | 1018.2 |
| 20260504110603 | 22 | 245 | 9.7 | 16.1 | 0.00 | 0.00 | 0.00 | 42 | 1018.2 |
| 20260504110503 | 22 | 243 | 8.0 | 16.1 | 0.00 | 0.00 | 0.00 | 43 | 1018.2 |
| 20260504110403 | 22 | 242 | 8.0 | 16.1 | 0.00 | 0.00 | 0.00 | 43 | 1018.2 |
| 20260504110303 | 22 | 241 | 8.0 | 16.1 | 0.00 | 0.00 | 0.00 | 43 | 1018.2 |
| 20260504110203 | 22 | 242 | 8.0 | 16.1 | 0.00 | 0.00 | 0.00 | 42 | 1018.2 |
| 20260504110103 | 22 | 243 | 8.0 | 16.1 | 0.00 | 0.00 | 0.00 | 42 | 1018.2 |
| 20260504100603 | 22 | 265 | 8.0 | 19.3 | 0.00 | 0.00 | 0.00 | 41 | 1018.3 |
| 20260504100503 | 22 | 264 | 8.0 | 19.3 | 0.00 | 0.00 | 0.00 | 41 | 1018.3 |
| 20260504100403 | 22 | 267 | 8.0 | 19.3 | 0.00 | 0.00 | 0.00 | 41 | 1018.3 |
| 20260504100303 | 22 | 270 | 8.0 | 19.3 | 0.00 | 0.00 | 0.00 | 42 | 1018.4 |
| 20260504100203 | 22 | 272 | 8.0 | 19.3 | 0.00 | 0.00 | 0.00 | 41 | 1018.4 |
| 20260504100103 | 22 | 272 | 8.0 | 19.3 | 0.00 | 0.00 | 0.00 | 41 | 1018.4 |
| 20260504082003 | 20 | 233 | 3.2 | 11.3 | 0.00 | 0.00 | 0.00 | 44 | 1018.2 |
| 20260504081903 | 20 | 237 | 3.2 | 11.3 | 0.00 | 0.00 | 0.00 | 44 | 1018.2 |
| 20260504081803 | 20 | 240 | 3.2 | 11.3 | 0.00 | 0.00 | 0.00 | 45 | 1018.1 |
| 20260504081703 | 20 | 238 | 4.8 | 11.3 | 0.00 | 0.00 | 0.00 | 44 | 1018.1 |
| 20260504081603 | 20 | 240 | 4.8 | 11.3 | 0.00 | 0.00 | 0.00 | 44 | 1018.1 |
| 20260504081503 | 20 | 243 | 4.8 | 11.3 | 0.00 | 0.00 | 0.00 | 44 | 1018.1 |
| 20260504081403 | 20 | 248 | 4.8 | 11.3 | 0.00 | 0.00 | 0.00 | 44 | 1018.2 |
| 20260504081303 | 20 | 253 | 4.8 | 11.3 | 0.00 | 0.00 | 0.00 | 45 | 1018.2 |
| 20260504081203 | 20 | 264 | 4.8 | 11.3 | 0.00 | 0.00 | 0.00 | 44 | 1018.2 |
| 20260504081103 | 20 | 269 | 4.8 | 11.3 | 0.00 | 0.00 | 0.00 | 44 | 1018.2 |
| 20260504081003 | 20 | 273 | 4.8 | 11.3 | 0.00 | 0.00 | 0.00 | 45 | 1018.1 |
| 20260504080903 | 20 | 277 | 4.8 | 11.3 | 0.00 | 0.00 | 0.00 | 44 | 1018.1 |
| 20260504080803 | 20 | 278 | 4.8 | 11.3 | 0.00 | 0.00 | 0.00 | 44 | 1018.1 |
| 20260504080703 | 20 | 279 | 4.8 | 11.3 | 0.00 | 0.00 | 0.00 | 44 | 1018.1 |
| 20260504080603 | 20 | 280 | 4.8 | 11.3 | 0.00 | 0.00 | 0.00 | 44 | 1018.1 |
| 20260504080503 | 20 | 279 | 4.8 | 11.3 | 0.00 | 0.00 | 0.00 | 44 | 1018.2 |
| 20260504080403 | 20 | 279 | 3.2 | 9.7 | 0.00 | 0.00 | 0.00 | 44 | 1018.1 |
| 20260504080303 | 20 | 276 | 3.2 | 9.7 | 0.00 | 0.00 | 0.00 | 44 | 1018.1 |
| 20260504080203 | 20 | 271 | 3.2 | 9.7 | 0.00 | 0.00 | 0.00 | 44 | 1018.1 |
| 20260504080103 | 20 | 268 | 3.2 | 9.7 | 0.00 | 0.00 | 0.00 | 44 | 1018.1 |
| 20260504070403 | 18 | 273 | 4.8 | 12.9 | 0.00 | 0.00 | 0.00 | 48 | 1017.7 |
| 20260504070303 | 18 | 273 | 4.8 | 12.9 | 0.00 | 0.00 | 0.00 | 49 | 1017.7 |
| 20260504070203 | 18 | 275 | 4.8 | 11.3 | 0.00 | 0.00 | 0.00 | 49 | 1017.7 |
| 20260504060203 | 16 | 267 | 1.6 | 6.4 | 0.00 | 0.00 | 0.00 | 56 | 1017.5 |
| 20260504060103 | 16 | 265 | 1.6 | 4.8 | 0.00 | 0.00 | 0.00 | 56 | 1017.5 |
| 20260504050703 | 14 | 340 | 0.0 | 1.6 | 0.00 | 0.00 | 0.00 | 61 | 1017.2 |
| 20260504050603 | 14 | 340 | 0.0 | 1.6 | 0.00 | 0.00 | 0.00 | 61 | 1017.1 |
| 20260504050504 | 14 | 340 | 0.0 | 1.6 | 0.00 | 0.00 | 0.00 | 61 | 1017.1 |
| 20260504050403 | 14 | 340 | 0.0 | 1.6 | 0.00 | 0.00 | 0.00 | 61 | 1017.2 |
| 20260504050303 | 14 | 340 | 0.0 | 1.6 | 0.00 | 0.00 | 0.00 | 62 | 1017.2 |
| 20260504050203 | 14 | 340 | 0.0 | 1.6 | 0.00 | 0.00 | 0.00 | 62 | 1017.1 |
| 20260504050103 | 14 | 340 | 0.0 | 1.6 | 0.00 | 0.00 | 0.00 | 61 | 1017.0 |
| 20260504050004 | 14 | 340 | 0.0 | 1.6 | 0.00 | 0.00 | 0.00 | 61 | 1017.0 |
| 20260504045903 | 14 | 340 | 0.0 | 3.2 | 0.00 | 0.00 | 0.00 | 61 | 1017.1 |
| 20260504045803 | 14 | 340 | 0.0 | 3.2 | 0.00 | 0.00 | 0.00 | 62 | 1017.0 |
| 20260504045703 | 14 | 340 | 0.0 | 3.2 | 0.00 | 0.00 | 0.00 | 61 | 1017.0 |
| 20260504045603 | 14 | 340 | 0.0 | 3.2 | 0.00 | 0.00 | 0.00 | 62 | 1017.0 |
| 20260504045503 | 14 | 340 | 0.0 | 3.2 | 0.00 | 0.00 | 0.00 | 62 | 1017.0 |
| 20260504045403 | 14 | 340 | 0.0 | 3.2 | 0.00 | 0.00 | 0.00 | 62 | 1017.0 |
| 20260504045304 | 14 | 340 | 0.0 | 3.2 | 0.00 | 0.00 | 0.00 | 62 | 1017.0 |
| 20260504045203 | 14 | 340 | 0.0 | 3.2 | 0.00 | 0.00 | 0.00 | 62 | 1017.0 |
| 20260504045103 | 14 | 340 | 0.0 | 3.2 | 0.00 | 0.00 | 0.00 | 61 | 1016.9 |
| 20260504045003 | 14 | 340 | 0.0 | 3.2 | 0.00 | 0.00 | 0.00 | 61 | 1016.9 |
| 20260504044903 | 14 | 340 | 0.0 | 3.2 | 0.00 | 0.00 | 0.00 | 61 | 1016.9 |
| 20260504044803 | 14 | 340 | 0.0 | 3.2 | 0.00 | 0.00 | 0.00 | 61 | 1016.9 |
| 20260504044703 | 13 | 340 | 0.0 | 3.2 | 0.00 | 0.00 | 0.00 | 62 | 1016.9 |
| 20260504044603 | 13 | 340 | 0.0 | 3.2 | 0.00 | 0.00 | 0.00 | 62 | 1016.9 |
| 20260504044503 | 13 | 340 | 0.0 | 3.2 | 0.00 | 0.00 | 0.00 | 63 | 1016.9 |
| 20260504044403 | 13 | 340 | 0.0 | 3.2 | 0.00 | 0.00 | 0.00 | 63 | 1016.8 |
| 20260504044303 | 13 | 340 | 0.0 | 3.2 | 0.00 | 0.00 | 0.00 | 63 | 1016.9 |
| 20260504044203 | 13 | 340 | 0.0 | 1.6 | 0.00 | 0.00 | 0.00 | 63 | 1016.9 |
| 20260504044103 | 13 | 340 | 0.0 | 1.6 | 0.00 | 0.00 | 0.00 | 63 | 1016.9 |
| 20260504044003 | 13 | 340 | 0.0 | 1.6 | 0.00 | 0.00 | 0.00 | 64 | 1016.9 |
| 20260504043903 | 13 | 340 | 0.0 | 1.6 | 0.00 | 0.00 | 0.00 | 64 | 1016.9 |
| 20260504043803 | 13 | 340 | 0.0 | 1.6 | 0.00 | 0.00 | 0.00 | 64 | 1016.9 |
| 20260504043703 | 13 | 340 | 0.0 | 1.6 | 0.00 | 0.00 | 0.00 | 64 | 1016.9 |
| 20260504043603 | 13 | 340 | 0.0 | 1.6 | 0.00 | 0.00 | 0.00 | 64 | 1016.8 |
| 20260504043503 | 13 | 340 | 0.0 | 1.6 | 0.00 | 0.00 | 0.00 | 65 | 1016.8 |
| 20260504043403 | 13 | 340 | 0.0 | 1.6 | 0.00 | 0.00 | 0.00 | 65 | 1016.8 |
| 20260504043303 | 13 | 340 | 0.0 | 1.6 | 0.00 | 0.00 | 0.00 | 65 | 1016.8 |
| 20260504043203 | 13 | 340 | 0.0 | 1.6 | 0.00 | 0.00 | 0.00 | 65 | 1016.8 |
| 20260504043104 | 13 | 340 | 0.0 | 1.6 | 0.00 | 0.00 | 0.00 | 65 | 1016.7 |
| 20260504043003 | 13 | 340 | 0.0 | 1.6 | 0.00 | 0.00 | 0.00 | 65 | 1016.8 |
| 20260504042903 | 13 | 340 | 0.0 | 1.6 | 0.00 | 0.00 | 0.00 | 65 | 1016.8 |
| 20260504042803 | 13 | 340 | 0.0 | 1.6 | 0.00 | 0.00 | 0.00 | 65 | 1016.8 |
| 20260504042703 | 13 | 340 | 0.0 | 1.6 | 0.00 | 0.00 | 0.00 | 65 | 1016.8 |
| 20260504042603 | 13 | 340 | 0.0 | 1.6 | 0.00 | 0.00 | 0.00 | 65 | 1016.8 |
| 20260504042503 | 13 | 340 | 0.0 | 1.6 | 0.00 | 0.00 | 0.00 | 65 | 1016.8 |
| 20260504042403 | 13 | 340 | 0.0 | 3.2 | 0.00 | 0.00 | 0.00 | 65 | 1016.8 |
| 20260504042304 | 13 | 340 | 0.0 | 3.2 | 0.00 | 0.00 | 0.00 | 65 | 1016.8 |
| 20260504042203 | 13 | 340 | 0.0 | 3.2 | 0.00 | 0.00 | 0.00 | 66 | 1016.8 |
| 20260504042103 | 13 | 340 | 1.6 | 3.2 | 0.00 | 0.00 | 0.00 | 66 | 1016.8 |
| 20260504042003 | 13 | 340 | 1.6 | 4.8 | 0.00 | 0.00 | 0.00 | 66 | 1016.8 |
| 20260504041903 | 13 | 340 | 1.6 | 4.8 | 0.00 | 0.00 | 0.00 | 66 | 1016.8 |
| 20260504041803 | 13 | 340 | 1.6 | 4.8 | 0.00 | 0.00 | 0.00 | 66 | 1016.8 |
| 20260504041703 | 13 | 340 | 1.6 | 4.8 | 0.00 | 0.00 | 0.00 | 65 | 1016.7 |
| 20260504041603 | 13 | 340 | 1.6 | 4.8 | 0.00 | 0.00 | 0.00 | 65 | 1016.7 |
| 20260504041503 | 13 | 340 | 1.6 | 4.8 | 0.00 | 0.00 | 0.00 | 65 | 1016.7 |
| 20260504041403 | 13 | 341 | 1.6 | 4.8 | 0.00 | 0.00 | 0.00 | 65 | 1016.7 |
| 20260504041303 | 13 | 341 | 1.6 | 4.8 | 0.00 | 0.00 | 0.00 | 65 | 1016.7 |
| 20260504041203 | 13 | 341 | 3.2 | 6.4 | 0.00 | 0.00 | 0.00 | 65 | 1016.8 |
| 20260504041103 | 13 | 341 | 1.6 | 6.4 | 0.00 | 0.00 | 0.00 | 65 | 1016.8 |
| 20260504041003 | 13 | 341 | 1.6 | 6.4 | 0.00 | 0.00 | 0.00 | 64 | 1016.7 |
| 20260504040903 | 13 | 342 | 1.6 | 6.4 | 0.00 | 0.00 | 0.00 | 64 | 1016.6 |
| 20260504040803 | 13 | 342 | 1.6 | 6.4 | 0.00 | 0.00 | 0.00 | 64 | 1016.6 |
| 20260504040703 | 13 | 342 | 1.6 | 6.4 | 0.00 | 0.00 | 0.00 | 64 | 1016.7 |
| 20260504040603 | 13 | 343 | 1.6 | 6.4 | 0.00 | 0.00 | 0.00 | 63 | 1016.7 |
| 20260504040503 | 13 | 342 | 1.6 | 6.4 | 0.00 | 0.00 | 0.00 | 64 | 1016.8 |
| 20260504040403 | 13 | 342 | 0.0 | 6.4 | 0.00 | 0.00 | 0.00 | 63 | 1016.7 |
| 20260504040303 | 13 | 340 | 0.0 | 6.4 | 0.00 | 0.00 | 0.00 | 63 | 1016.7 |
| 20260504040203 | 13 | 339 | 0.0 | 3.2 | 0.00 | 0.00 | 0.00 | 64 | 1016.8 |
| 20260504040103 | 13 | 0 | 0.0 | 0.0 | 0.00 | 0.00 | 0.00 | 64 | 1016.8 |
| 20260504040003 | 13 | 0 | 0.0 | 0.0 | 0.00 | 0.00 | 0.00 | 64 | 1016.8 |
| 20260504035903 | 13 | 0 | 0.0 | 0.0 | 0.00 | 0.00 | 0.00 | 64 | 1016.8 |
| 20260504035803 | 13 | 0 | 0.0 | 0.0 | 0.00 | 0.00 | 0.00 | 64 | 1016.8 |
| 20260504035703 | 13 | 0 | 0.0 | 0.0 | 0.00 | 0.00 | 0.00 | 64 | 1016.8 |
| 20260504035603 | 13 | 0 | 0.0 | 0.0 | 0.00 | 0.00 | 0.00 | 64 | 1016.8 |
| 20260504035503 | 13 | 0 | 0.0 | 0.0 | 0.00 | 0.00 | 0.00 | 64 | 1016.7 |
| 20260504035403 | 13 | 0 | 0.0 | 0.0 | 0.00 | 0.00 | 0.00 | 64 | 1016.8 |
| 20260504035304 | 13 | 0 | 0.0 | 0.0 | 0.00 | 0.00 | 0.00 | 64 | 1016.8 |
| 20260504035203 | 13 | 0 | 0.0 | 0.0 | 0.00 | 0.00 | 0.00 | 64 | 1016.6 |
| 20260504035103 | 13 | 0 | 0.0 | 0.0 | 0.00 | 0.00 | 0.00 | 64 | 1016.7 |
| 20260504035003 | 13 | 0 | 0.0 | 0.0 | 0.00 | 0.00 | 0.00 | 63 | 1016.7 |
| 20260504034903 | 13 | 0 | 0.0 | 0.0 | 0.00 | 0.00 | 0.00 | 63 | 1016.6 |
| 20260504034803 | 14 | 0 | 0.0 | 0.0 | 0.00 | 0.00 | 0.00 | 63 | 1016.6 |
| 20260504034703 | 13 | 0 | 0.0 | 0.0 | 0.00 | 0.00 | 0.00 | 63 | 1016.6 |
| 20260504034603 | 13 | 0 | 0.0 | 0.0 | 0.00 | 0.00 | 0.00 | 63 | 1016.7 |
| 20260504034503 | 13 | 0 | 0.0 | 0.0 | 0.00 | 0.00 | 0.00 | 64 | 1016.7 |
| 20260504034403 | 14 | 245 | 0.0 | 1.6 | 0.00 | 0.00 | 0.00 | 64 | 1016.7 |
| 20260504034303 | 13 | 245 | 0.0 | 1.6 | 0.00 | 0.00 | 0.00 | 64 | 1016.7 |
| 20260504034203 | 13 | 245 | 0.0 | 1.6 | 0.00 | 0.00 | 0.00 | 65 | 1016.8 |
| 20260504034103 | 13 | 245 | 0.0 | 1.6 | 0.00 | 0.00 | 0.00 | 65 | 1016.7 |
| 20260504034003 | 13 | 245 | 0.0 | 1.6 | 0.00 | 0.00 | 0.00 | 64 | 1016.7 |
| 20260504033903 | 13 | 245 | 0.0 | 1.6 | 0.00 | 0.00 | 0.00 | 64 | 1016.8 |
| 20260504033803 | 13 | 245 | 0.0 | 1.6 | 0.00 | 0.00 | 0.00 | 64 | 1016.8 |
| 20260504033703 | 13 | 245 | 0.0 | 1.6 | 0.00 | 0.00 | 0.00 | 64 | 1016.8 |
| 20260504033603 | 13 | 245 | 0.0 | 1.6 | 0.00 | 0.00 | 0.00 | 64 | 1016.8 |
| 20260504033503 | 13 | 245 | 0.0 | 1.6 | 0.00 | 0.00 | 0.00 | 64 | 1016.8 |
| 20260504033403 | 13 | 0 | 0.0 | 0.0 | 0.00 | 0.00 | 0.00 | 64 | 1016.8 |
| 20260504033303 | 13 | 0 | 0.0 | 0.0 | 0.00 | 0.00 | 0.00 | 64 | 1016.8 |
| 20260504033203 | 13 | 0 | 0.0 | 0.0 | 0.00 | 0.00 | 0.00 | 64 | 1016.8 |
| 20260504033103 | 13 | 0 | 0.0 | 0.0 | 0.00 | 0.00 | 0.00 | 64 | 1016.9 |
| 20260504033004 | 13 | 0 | 0.0 | 0.0 | 0.00 | 0.00 | 0.00 | 64 | 1016.9 |
| 20260504032903 | 13 | 0 | 0.0 | 0.0 | 0.00 | 0.00 | 0.00 | 64 | 1016.9 |
| 20260504032803 | 13 | 0 | 0.0 | 0.0 | 0.00 | 0.00 | 0.00 | 64 | 1016.9 |
| 20260504032703 | 13 | 244 | 0.0 | 1.6 | 0.00 | 0.00 | 0.00 | 64 | 1016.9 |
| 20260504032603 | 13 | 244 | 0.0 | 3.2 | 0.00 | 0.00 | 0.00 | 64 | 1016.9 |
| 20260504032503 | 13 | 244 | 0.0 | 3.2 | 0.00 | 0.00 | 0.00 | 64 | 1016.9 |
| 20260504032403 | 13 | 244 | 0.0 | 3.2 | 0.00 | 0.00 | 0.00 | 64 | 1016.9 |
| 20260504032304 | 13 | 244 | 0.0 | 3.2 | 0.00 | 0.00 | 0.00 | 64 | 1016.9 |
| 20260504032203 | 14 | 244 | 0.0 | 3.2 | 0.00 | 0.00 | 0.00 | 64 | 1016.9 |
| 20260504032103 | 14 | 244 | 0.0 | 3.2 | 0.00 | 0.00 | 0.00 | 64 | 1016.8 |
| 20260504032003 | 14 | 244 | 0.0 | 3.2 | 0.00 | 0.00 | 0.00 | 64 | 1016.9 |
| 20260504031903 | 14 | 244 | 0.0 | 3.2 | 0.00 | 0.00 | 0.00 | 63 | 1016.9 |
| 20260504031803 | 14 | 244 | 0.0 | 3.2 | 0.00 | 0.00 | 0.00 | 63 | 1016.9 |
| 20260504031703 | 14 | 244 | 0.0 | 3.2 | 0.00 | 0.00 | 0.00 | 63 | 1016.9 |
| 20260504031603 | 14 | 244 | 1.6 | 3.2 | 0.00 | 0.00 | 0.00 | 63 | 1016.9 |
| 20260504031503 | 14 | 244 | 1.6 | 3.2 | 0.00 | 0.00 | 0.00 | 63 | 1016.9 |
| 20260504031403 | 14 | 244 | 1.6 | 3.2 | 0.00 | 0.00 | 0.00 | 63 | 1016.9 |
| 20260504031303 | 14 | 244 | 0.0 | 3.2 | 0.00 | 0.00 | 0.00 | 63 | 1016.8 |
| 20260504031203 | 14 | 244 | 0.0 | 3.2 | 0.00 | 0.00 | 0.00 | 62 | 1016.8 |
| 20260504031103 | 14 | 244 | 0.0 | 3.2 | 0.00 | 0.00 | 0.00 | 62 | 1016.8 |
| 20260504031003 | 14 | 244 | 0.0 | 3.2 | 0.00 | 0.00 | 0.00 | 62 | 1016.9 |
| 20260504030903 | 14 | 244 | 0.0 | 3.2 | 0.00 | 0.00 | 0.00 | 61 | 1016.9 |
| 20260504030803 | 14 | 244 | 0.0 | 3.2 | 0.00 | 0.00 | 0.00 | 61 | 1016.8 |
| 20260504030703 | 14 | 244 | 0.0 | 3.2 | 0.00 | 0.00 | 0.00 | 61 | 1016.8 |
| 20260504030603 | 14 | 244 | 0.0 | 3.2 | 0.00 | 0.00 | 0.00 | 61 | 1016.9 |
| 20260504030503 | 14 | 244 | 0.0 | 3.2 | 0.00 | 0.00 | 0.00 | 62 | 1016.9 |
| 20260504030403 | 14 | 244 | 0.0 | 3.2 | 0.00 | 0.00 | 0.00 | 62 | 1016.9 |
| 20260504030303 | 14 | 244 | 0.0 | 3.2 | 0.00 | 0.00 | 0.00 | 62 | 1016.8 |
| 20260504030203 | 14 | 244 | 1.6 | 3.2 | 0.00 | 0.00 | 0.00 | 62 | 1016.8 |
| 20260504030004 | 14 | 244 | 1.6 | 3.2 | 0.00 | 0.00 | 0.00 | 62 | 1016.8 |
| 20260504025903 | 14 | 244 | 1.6 | 3.2 | 0.00 | 0.00 | 0.00 | 61 | 1016.8 |
| 20260504025803 | 14 | 244 | 1.6 | 3.2 | 0.00 | 0.00 | 0.00 | 61 | 1016.8 |
| 20260504025703 | 14 | 244 | 1.6 | 3.2 | 0.00 | 0.00 | 0.00 | 61 | 1016.8 |
| 20260504025603 | 14 | 244 | 1.6 | 3.2 | 0.00 | 0.00 | 0.00 | 62 | 1016.8 |
| 20260504025503 | 14 | 244 | 1.6 | 3.2 | 0.00 | 0.00 | 0.00 | 62 | 1016.8 |
| 20260504025404 | 14 | 244 | 1.6 | 3.2 | 0.00 | 0.00 | 0.00 | 62 | 1016.8 |
| 20260504025304 | 14 | 244 | 1.6 | 3.2 | 0.00 | 0.00 | 0.00 | 62 | 1016.9 |
| 20260504025203 | 14 | 244 | 1.6 | 3.2 | 0.00 | 0.00 | 0.00 | 62 | 1016.8 |
| 20260504025104 | 14 | 244 | 1.6 | 3.2 | 0.00 | 0.00 | 0.00 | 62 | 1016.8 |
| 20260504025003 | 14 | 244 | 1.6 | 3.2 | 0.00 | 0.00 | 0.00 | 62 | 1016.8 |
| 20260504024904 | 14 | 244 | 0.0 | 3.2 | 0.00 | 0.00 | 0.00 | 62 | 1016.8 |
| 20260504024803 | 14 | 244 | 0.0 | 3.2 | 0.00 | 0.00 | 0.00 | 62 | 1016.8 |
| 20260504024703 | 14 | 244 | 0.0 | 3.2 | 0.00 | 0.00 | 0.00 | 62 | 1016.8 |
| 20260504024603 | 14 | 244 | 0.0 | 3.2 | 0.00 | 0.00 | 0.00 | 62 | 1016.8 |
| 20260504024503 | 14 | 244 | 0.0 | 3.2 | 0.00 | 0.00 | 0.00 | 62 | 1016.9 |
| 20260504024403 | 14 | 244 | 0.0 | 3.2 | 0.00 | 0.00 | 0.00 | 62 | 1016.9 |
| 20260504024303 | 14 | 244 | 0.0 | 3.2 | 0.00 | 0.00 | 0.00 | 63 | 1016.9 |
| 20260504024203 | 14 | 244 | 0.0 | 3.2 | 0.00 | 0.00 | 0.00 | 63 | 1016.8 |
| 20260504024103 | 14 | 244 | 0.0 | 3.2 | 0.00 | 0.00 | 0.00 | 63 | 1016.8 |
| 20260504024003 | 14 | 244 | 0.0 | 3.2 | 0.00 | 0.00 | 0.00 | 62 | 1016.9 |
| 20260504023903 | 14 | 244 | 1.6 | 3.2 | 0.00 | 0.00 | 0.00 | 62 | 1017.0 |
| 20260504023803 | 14 | 244 | 1.6 | 3.2 | 0.00 | 0.00 | 0.00 | 62 | 1017.0 |
| 20260504023703 | 14 | 244 | 1.6 | 3.2 | 0.00 | 0.00 | 0.00 | 62 | 1016.9 |
| 20260504023603 | 14 | 244 | 1.6 | 3.2 | 0.00 | 0.00 | 0.00 | 61 | 1016.9 |
| 20260504023503 | 14 | 244 | 1.6 | 3.2 | 0.00 | 0.00 | 0.00 | 61 | 1016.9 |
| 20260504023403 | 14 | 244 | 1.6 | 3.2 | 0.00 | 0.00 | 0.00 | 61 | 1016.9 |
| 20260504023303 | 14 | 244 | 1.6 | 3.2 | 0.00 | 0.00 | 0.00 | 61 | 1016.9 |
| 20260504023203 | 14 | 244 | 1.6 | 3.2 | 0.00 | 0.00 | 0.00 | 61 | 1016.9 |
| 20260504023103 | 14 | 244 | 1.6 | 3.2 | 0.00 | 0.00 | 0.00 | 61 | 1016.9 |
| 20260504023003 | 14 | 244 | 1.6 | 3.2 | 0.00 | 0.00 | 0.00 | 61 | 1016.9 |
| 20260504022903 | 14 | 244 | 1.6 | 3.2 | 0.00 | 0.00 | 0.00 | 61 | 1016.9 |
| 20260504022803 | 14 | 244 | 1.6 | 3.2 | 0.00 | 0.00 | 0.00 | 62 | 1016.9 |
| 20260504022703 | 14 | 244 | 1.6 | 3.2 | 0.00 | 0.00 | 0.00 | 62 | 1016.9 |
| 20260504022603 | 14 | 244 | 1.6 | 3.2 | 0.00 | 0.00 | 0.00 | 62 | 1016.9 |
| 20260504022504 | 14 | 244 | 1.6 | 3.2 | 0.00 | 0.00 | 0.00 | 62 | 1016.9 |
| 20260504022403 | 14 | 244 | 1.6 | 3.2 | 0.00 | 0.00 | 0.00 | 62 | 1016.9 |
| 20260504022304 | 14 | 244 | 0.0 | 3.2 | 0.00 | 0.00 | 0.00 | 62 | 1016.9 |
| 20260504022203 | 14 | 244 | 0.0 | 3.2 | 0.00 | 0.00 | 0.00 | 62 | 1016.9 |
| 20260504022104 | 14 | 244 | 1.6 | 3.2 | 0.00 | 0.00 | 0.00 | 62 | 1016.9 |
| 20260504022003 | 14 | 244 | 1.6 | 3.2 | 0.00 | 0.00 | 0.00 | 62 | 1016.9 |
| 20260504021903 | 14 | 244 | 1.6 | 3.2 | 0.00 | 0.00 | 0.00 | 62 | 1016.9 |
| 20260504021803 | 14 | 244 | 1.6 | 3.2 | 0.00 | 0.00 | 0.00 | 62 | 1016.9 |
| 20260504021703 | 14 | 244 | 0.0 | 3.2 | 0.00 | 0.00 | 0.00 | 62 | 1016.9 |
| 20260504021603 | 14 | 244 | 0.0 | 3.2 | 0.00 | 0.00 | 0.00 | 62 | 1016.9 |
| 20260504021503 | 14 | 244 | 0.0 | 1.6 | 0.00 | 0.00 | 0.00 | 61 | 1016.9 |
| 20260504021403 | 14 | 244 | 0.0 | 3.2 | 0.00 | 0.00 | 0.00 | 61 | 1016.9 |
| 20260504021304 | 14 | 244 | 1.6 | 4.8 | 0.00 | 0.00 | 0.00 | 62 | 1016.9 |
| 20260504021203 | 14 | 244 | 1.6 | 4.8 | 0.00 | 0.00 | 0.00 | 61 | 1016.9 |
| 20260504021104 | 14 | 246 | 1.6 | 4.8 | 0.00 | 0.00 | 0.00 | 61 | 1017.0 |
| 20260504021003 | 15 | 248 | 1.6 | 4.8 | 0.00 | 0.00 | 0.00 | 62 | 1017.0 |
| 20260504020903 | 15 | 249 | 1.6 | 4.8 | 0.00 | 0.00 | 0.00 | 62 | 1017.0 |
| 20260504020803 | 15 | 250 | 1.6 | 4.8 | 0.00 | 0.00 | 0.00 | 62 | 1017.0 |
| 20260504020703 | 15 | 251 | 1.6 | 4.8 | 0.00 | 0.00 | 0.00 | 61 | 1017.0 |
| 20260504020603 | 15 | 251 | 1.6 | 4.8 | 0.00 | 0.00 | 0.00 | 61 | 1016.9 |
| 20260504020503 | 15 | 252 | 1.6 | 4.8 | 0.00 | 0.00 | 0.00 | 61 | 1016.9 |
| 20260504020403 | 15 | 253 | 1.6 | 4.8 | 0.00 | 0.00 | 0.00 | 61 | 1016.9 |
| 20260504020303 | 15 | 255 | 1.6 | 4.8 | 0.00 | 0.00 | 0.00 | 61 | 1016.9 |
| 20260504020203 | 15 | 259 | 1.6 | 3.2 | 0.00 | 0.00 | 0.00 | 61 | 1016.9 |
| 20260504020103 | 15 | 260 | 0.0 | 3.2 | 0.00 | 0.00 | 0.00 | 61 | 1016.9 |
| 20260504020004 | 15 | 260 | 0.0 | 3.2 | 0.00 | 0.00 | 0.00 | 61 | 1016.9 |
| 20260504015903 | 15 | 260 | 1.6 | 3.2 | 0.00 | 0.00 | 0.00 | 61 | 1016.9 |
| 20260504015803 | 15 | 260 | 1.6 | 3.2 | 0.00 | 0.00 | 0.00 | 61 | 1016.9 |
| 20260504015703 | 15 | 260 | 1.6 | 3.2 | 0.00 | 0.00 | 0.00 | 61 | 1016.9 |
| 20260504015603 | 15 | 260 | 1.6 | 3.2 | 0.00 | 0.00 | 0.00 | 61 | 1016.9 |
| 20260504015503 | 15 | 260 | 1.6 | 3.2 | 0.00 | 0.00 | 0.00 | 60 | 1016.9 |
| 20260504015403 | 15 | 260 | 1.6 | 3.2 | 0.00 | 0.00 | 0.00 | 60 | 1016.9 |
| 20260504015304 | 15 | 260 | 1.6 | 3.2 | 0.00 | 0.00 | 0.00 | 60 | 1016.9 |
| 20260504015203 | 15 | 260 | 1.6 | 3.2 | 0.00 | 0.00 | 0.00 | 60 | 1016.9 |
| 20260504015103 | 15 | 260 | 1.6 | 3.2 | 0.00 | 0.00 | 0.00 | 60 | 1016.9 |
| 20260504015003 | 15 | 260 | 1.6 | 3.2 | 0.00 | 0.00 | 0.00 | 60 | 1016.9 |
| 20260504014903 | 15 | 260 | 1.6 | 3.2 | 0.00 | 0.00 | 0.00 | 60 | 1016.9 |
| 20260504014803 | 15 | 260 | 1.6 | 4.8 | 0.00 | 0.00 | 0.00 | 60 | 1016.9 |
| 20260504014703 | 15 | 260 | 1.6 | 4.8 | 0.00 | 0.00 | 0.00 | 60 | 1016.9 |
| 20260504014603 | 15 | 260 | 1.6 | 4.8 | 0.00 | 0.00 | 0.00 | 60 | 1016.9 |
| 20260504014503 | 15 | 260 | 1.6 | 4.8 | 0.00 | 0.00 | 0.00 | 59 | 1016.9 |
| 20260504014403 | 15 | 259 | 1.6 | 4.8 | 0.00 | 0.00 | 0.00 | 59 | 1016.9 |
| 20260504014303 | 15 | 255 | 1.6 | 4.8 | 0.00 | 0.00 | 0.00 | 59 | 1016.9 |
| 20260504014203 | 15 | 255 | 3.2 | 4.8 | 0.00 | 0.00 | 0.00 | 59 | 1016.9 |
| 20260504014103 | 15 | 258 | 3.2 | 4.8 | 0.00 | 0.00 | 0.00 | 59 | 1016.9 |
| 20260504014004 | 15 | 264 | 3.2 | 4.8 | 0.00 | 0.00 | 0.00 | 59 | 1016.8 |
| 20260504013903 | 15 | 271 | 3.2 | 4.8 | 0.00 | 0.00 | 0.00 | 59 | 1016.8 |
| 20260504013804 | 15 | 277 | 3.2 | 4.8 | 0.00 | 0.00 | 0.00 | 59 | 1016.8 |
| 20260504013704 | 15 | 285 | 3.2 | 4.8 | 0.00 | 0.00 | 0.00 | 58 | 1016.8 |
| 20260504013603 | 15 | 295 | 3.2 | 4.8 | 0.00 | 0.00 | 0.00 | 58 | 1016.8 |
| 20260504013503 | 15 | 303 | 3.2 | 4.8 | 0.00 | 0.00 | 0.00 | 58 | 1016.9 |
| 20260504013403 | 15 | 314 | 3.2 | 4.8 | 0.00 | 0.00 | 0.00 | 58 | 1016.9 |
| 20260504013303 | 16 | 327 | 1.6 | 4.8 | 0.00 | 0.00 | 0.00 | 58 | 1016.8 |
| 20260504013203 | 16 | 334 | 1.6 | 4.8 | 0.00 | 0.00 | 0.00 | 58 | 1016.9 |
| 20260504013103 | 16 | 336 | 1.6 | 4.8 | 0.00 | 0.00 | 0.00 | 58 | 1016.9 |
| 20260504013003 | 16 | 338 | 1.6 | 4.8 | 0.00 | 0.00 | 0.00 | 58 | 1016.8 |
| 20260504012903 | 16 | 338 | 1.6 | 4.8 | 0.00 | 0.00 | 0.00 | 58 | 1016.8 |
| 20260504012803 | 16 | 340 | 1.6 | 4.8 | 0.00 | 0.00 | 0.00 | 58 | 1016.9 |
| 20260504012703 | 16 | 344 | 1.6 | 4.8 | 0.00 | 0.00 | 0.00 | 58 | 1016.9 |
| 20260504012604 | 16 | 348 | 0.0 | 3.2 | 0.00 | 0.00 | 0.00 | 58 | 1016.9 |
| 20260504012503 | 16 | 353 | 0.0 | 3.2 | 0.00 | 0.00 | 0.00 | 58 | 1016.9 |
| 20260504012403 | 16 | 354 | 0.0 | 1.6 | 0.00 | 0.00 | 0.00 | 58 | 1016.9 |
| 20260504012304 | 16 | 354 | 0.0 | 1.6 | 0.00 | 0.00 | 0.00 | 58 | 1016.9 |
| 20260504012203 | 16 | 354 | 0.0 | 1.6 | 0.00 | 0.00 | 0.00 | 58 | 1016.9 |
| 20260504012103 | 16 | 354 | 0.0 | 1.6 | 0.00 | 0.00 | 0.00 | 58 | 1016.9 |
| 20260504012003 | 16 | 354 | 0.0 | 1.6 | 0.00 | 0.00 | 0.00 | 58 | 1016.9 |
| 20260504011903 | 16 | 354 | 0.0 | 1.6 | 0.00 | 0.00 | 0.00 | 58 | 1016.9 |
| 20260504011803 | 16 | 354 | 0.0 | 3.2 | 0.00 | 0.00 | 0.00 | 58 | 1016.9 |
| 20260504011703 | 16 | 353 | 0.0 | 3.2 | 0.00 | 0.00 | 0.00 | 57 | 1016.9 |
| 20260504011603 | 16 | 350 | 0.0 | 4.8 | 0.00 | 0.00 | 0.00 | 57 | 1016.9 |
| 20260504011503 | 16 | 350 | 1.6 | 4.8 | 0.00 | 0.00 | 0.00 | 57 | 1016.8 |
| 20260504011403 | 16 | 347 | 1.6 | 4.8 | 0.00 | 0.00 | 0.00 | 57 | 1016.9 |
| 20260504011303 | 16 | 344 | 1.6 | 4.8 | 0.00 | 0.00 | 0.00 | 57 | 1016.9 |
| 20260504011203 | 16 | 341 | 1.6 | 4.8 | 0.00 | 0.00 | 0.00 | 57 | 1016.9 |
| 20260504011103 | 16 | 339 | 1.6 | 4.8 | 0.00 | 0.00 | 0.00 | 57 | 1016.9 |
| 20260504011003 | 16 | 335 | 1.6 | 4.8 | 0.00 | 0.00 | 0.00 | 57 | 1016.9 |
| 20260504010903 | 16 | 335 | 1.6 | 4.8 | 0.00 | 0.00 | 0.00 | 56 | 1016.9 |
| 20260504010803 | 16 | 332 | 1.6 | 4.8 | 0.00 | 0.00 | 0.00 | 56 | 1016.9 |
| 20260504010703 | 16 | 329 | 1.6 | 4.8 | 0.00 | 0.00 | 0.00 | 56 | 1016.9 |
| 20260504010603 | 16 | 326 | 1.6 | 4.8 | 0.00 | 0.00 | 0.00 | 56 | 1016.9 |
| 20260504010503 | 16 | 323 | 1.6 | 4.8 | 0.00 | 0.00 | 0.00 | 56 | 1016.9 |
| 20260504010403 | 16 | 321 | 1.6 | 4.8 | 0.00 | 0.00 | 0.00 | 56 | 1017.0 |
| 20260504010303 | 16 | 320 | 1.6 | 4.8 | 0.00 | 0.00 | 0.00 | 56 | 1017.0 |
| 20260504010204 | 16 | 319 | 1.6 | 4.8 | 0.00 | 0.00 | 0.00 | 56 | 1016.9 |
| 20260504010003 | 16 | 317 | 1.6 | 4.8 | 0.00 | 0.00 | 0.00 | 55 | 1016.9 |
| 20260504005903 | 16 | 317 | 1.6 | 4.8 | 0.00 | 0.00 | 0.00 | 55 | 1016.9 |
| 20260504005803 | 16 | 318 | 1.6 | 4.8 | 0.00 | 0.00 | 0.00 | 55 | 1016.9 |
| 20260504005703 | 16 | 323 | 1.6 | 6.4 | 0.00 | 0.00 | 0.00 | 55 | 1016.8 |
| 20260504005603 | 16 | 330 | 1.6 | 6.4 | 0.00 | 0.00 | 0.00 | 55 | 1016.8 |
| 20260504005503 | 16 | 334 | 3.2 | 6.4 | 0.00 | 0.00 | 0.00 | 55 | 1016.8 |
| 20260504005403 | 16 | 338 | 3.2 | 6.4 | 0.00 | 0.00 | 0.00 | 55 | 1016.9 |
| 20260504005304 | 16 | 343 | 3.2 | 6.4 | 0.00 | 0.00 | 0.00 | 55 | 1016.9 |
| 20260504005203 | 16 | 345 | 3.2 | 6.4 | 0.00 | 0.00 | 0.00 | 55 | 1016.9 |
| 20260504005103 | 16 | 348 | 3.2 | 6.4 | 0.00 | 0.00 | 0.00 | 54 | 1016.8 |
| 20260504005004 | 16 | 350 | 3.2 | 6.4 | 0.00 | 0.00 | 0.00 | 54 | 1016.8 |
| 20260504004903 | 16 | 349 | 3.2 | 6.4 | 0.00 | 0.00 | 0.00 | 54 | 1016.9 |
| 20260504004803 | 16 | 349 | 3.2 | 6.4 | 0.00 | 0.00 | 0.00 | 53 | 1016.9 |
| 20260504004703 | 16 | 348 | 3.2 | 6.4 | 0.00 | 0.00 | 0.00 | 53 | 1016.9 |
| 20260504004603 | 16 | 347 | 3.2 | 6.4 | 0.00 | 0.00 | 0.00 | 53 | 1016.8 |
| 20260504004504 | 16 | 346 | 3.2 | 6.4 | 0.00 | 0.00 | 0.00 | 53 | 1016.8 |
| 20260504004403 | 16 | 344 | 3.2 | 6.4 | 0.00 | 0.00 | 0.00 | 53 | 1016.9 |
| 20260504004303 | 16 | 340 | 3.2 | 6.4 | 0.00 | 0.00 | 0.00 | 53 | 1016.9 |
| 20260504004203 | 16 | 337 | 3.2 | 6.4 | 0.00 | 0.00 | 0.00 | 53 | 1016.9 |
| 20260504004103 | 16 | 335 | 3.2 | 6.4 | 0.00 | 0.00 | 0.00 | 53 | 1016.9 |
| 20260504004003 | 16 | 333 | 3.2 | 6.4 | 0.00 | 0.00 | 0.00 | 53 | 1016.9 |
| 20260504003903 | 16 | 332 | 3.2 | 6.4 | 0.00 | 0.00 | 0.00 | 52 | 1016.9 |
| 20260504003803 | 16 | 331 | 3.2 | 6.4 | 0.00 | 0.00 | 0.00 | 52 | 1016.9 |
| 20260504003703 | 16 | 330 | 3.2 | 6.4 | 0.00 | 0.00 | 0.00 | 52 | 1016.9 |
| 20260504003603 | 16 | 329 | 3.2 | 6.4 | 0.00 | 0.00 | 0.00 | 52 | 1016.9 |
| 20260504003503 | 16 | 329 | 3.2 | 6.4 | 0.00 | 0.00 | 0.00 | 52 | 1017.0 |
| 20260504003403 | 16 | 329 | 3.2 | 6.4 | 0.00 | 0.00 | 0.00 | 52 | 1017.0 |
| 20260504003303 | 16 | 330 | 3.2 | 6.4 | 0.00 | 0.00 | 0.00 | 52 | 1017.0 |
| 20260504003203 | 16 | 331 | 3.2 | 6.4 | 0.00 | 0.00 | 0.00 | 52 | 1017.0 |
| 20260504003103 | 16 | 330 | 3.2 | 6.4 | 0.00 | 0.00 | 0.00 | 51 | 1017.0 |
| 20260504003003 | 16 | 329 | 3.2 | 6.4 | 0.00 | 0.00 | 0.00 | 51 | 1017.0 |
| 20260504002903 | 16 | 329 | 3.2 | 6.4 | 0.00 | 0.00 | 0.00 | 51 | 1017.0 |
| 20260504002803 | 16 | 329 | 3.2 | 6.4 | 0.00 | 0.00 | 0.00 | 51 | 1017.0 |
| 20260504002703 | 16 | 328 | 3.2 | 6.4 | 0.00 | 0.00 | 0.00 | 51 | 1017.0 |
| 20260504002603 | 16 | 327 | 3.2 | 6.4 | 0.00 | 0.00 | 0.00 | 51 | 1017.1 |
| 20260504002503 | 16 | 326 | 3.2 | 6.4 | 0.00 | 0.00 | 0.00 | 50 | 1017.1 |
| 20260504002403 | 16 | 325 | 3.2 | 6.4 | 0.00 | 0.00 | 0.00 | 50 | 1017.1 |
| 20260504002304 | 16 | 326 | 3.2 | 6.4 | 0.00 | 0.00 | 0.00 | 50 | 1017.1 |
| 20260504002203 | 16 | 324 | 3.2 | 6.4 | 0.00 | 0.00 | 0.00 | 50 | 1017.1 |
| 20260504002103 | 16 | 325 | 3.2 | 6.4 | 0.00 | 0.00 | 0.00 | 50 | 1017.1 |
| 20260504002003 | 16 | 324 | 3.2 | 4.8 | 0.00 | 0.00 | 0.00 | 50 | 1017.1 |
| 20260504001903 | 16 | 324 | 3.2 | 4.8 | 0.00 | 0.00 | 0.00 | 50 | 1017.1 |
| 20260504001803 | 16 | 326 | 3.2 | 4.8 | 0.00 | 0.00 | 0.00 | 50 | 1017.2 |
| 20260504001703 | 16 | 326 | 3.2 | 4.8 | 0.00 | 0.00 | 0.00 | 50 | 1017.2 |
| 20260504001603 | 16 | 327 | 3.2 | 4.8 | 0.00 | 0.00 | 0.00 | 50 | 1017.2 |
| 20260504001503 | 16 | 327 | 3.2 | 4.8 | 0.00 | 0.00 | 0.00 | 50 | 1017.2 |
| 20260504001403 | 16 | 326 | 3.2 | 4.8 | 0.00 | 0.00 | 0.00 | 50 | 1017.2 |
| 20260504001303 | 16 | 324 | 3.2 | 4.8 | 0.00 | 0.00 | 0.00 | 50 | 1017.2 |
| 20260504001203 | 16 | 326 | 3.2 | 4.8 | 0.00 | 0.00 | 0.00 | 50 | 1017.2 |
| 20260504001103 | 16 | 326 | 3.2 | 4.8 | 0.00 | 0.00 | 0.00 | 50 | 1017.2 |
| 20260504001003 | 16 | 328 | 3.2 | 4.8 | 0.00 | 0.00 | 0.00 | 51 | 1017.3 |
| 20260504000903 | 16 | 328 | 3.2 | 4.8 | 0.00 | 0.00 | 0.00 | 50 | 1017.3 |
| 20260504000803 | 16 | 327 | 3.2 | 4.8 | 0.00 | 0.00 | 0.00 | 50 | 1017.3 |
| 20260504000703 | 16 | 328 | 3.2 | 4.8 | 0.00 | 0.00 | 0.00 | 51 | 1017.3 |
| 20260504000603 | 16 | 328 | 3.2 | 4.8 | 0.00 | 0.00 | 0.00 | 50 | 1017.3 |
| 20260504000503 | 16 | 329 | 3.2 | 4.8 | 0.00 | 0.00 | 0.00 | 51 | 1017.3 |
| 20260504000403 | 16 | 329 | 3.2 | 4.8 | 0.00 | 0.00 | 0.00 | 50 | 1017.4 |
| 20260504000303 | 16 | 329 | 3.2 | 4.8 | 0.00 | 0.00 | 0.00 | 50 | 1017.4 |
| 20260504000204 | 16 | 329 | 3.2 | 6.4 | 0.00 | 0.00 | 0.00 | 50 | 1017.3 |
| 20260504000104 | 16 | 327 | 3.2 | 6.4 | 0.00 | 0.00 | 0.00 | 50 | 1017.3 |
| 20260504000004 | 16 | 326 | 3.2 | 6.4 | 0.00 | 0.00 | 0.00 | 50 | 1017.3 |
| 20260503235903 | 16 | 326 | 3.2 | 6.4 | 0.00 | 0.00 | 0.00 | 50 | 1017.4 |
| 20260503235803 | 16 | 325 | 1.6 | 6.4 | 0.00 | 0.00 | 0.00 | 50 | 1017.4 |
| 20260503235703 | 16 | 325 | 1.6 | 6.4 | 0.00 | 0.00 | 0.00 | 50 | 1017.3 |
| 20260503235603 | 16 | 325 | 1.6 | 6.4 | 0.00 | 0.00 | 0.00 | 50 | 1017.3 |
| 20260503235503 | 16 | 326 | 1.6 | 6.4 | 0.00 | 0.00 | 0.00 | 50 | 1017.3 |
| 20260503235403 | 16 | 324 | 1.6 | 6.4 | 0.00 | 0.00 | 0.00 | 50 | 1017.3 |
| 20260503235304 | 16 | 322 | 1.6 | 6.4 | 0.00 | 0.00 | 0.00 | 50 | 1017.3 |
| 20260503235203 | 16 | 321 | 1.6 | 4.8 | 0.00 | 0.00 | 0.00 | 50 | 1017.3 |
| 20260503235103 | 16 | 322 | 1.6 | 4.8 | 0.00 | 0.00 | 0.00 | 50 | 1017.3 |
| 20260503235003 | 16 | 321 | 1.6 | 4.8 | 0.00 | 0.00 | 0.00 | 50 | 1017.4 |
| 20260503234903 | 16 | 316 | 1.6 | 4.8 | 0.00 | 0.00 | 0.00 | 50 | 1017.3 |
| 20260503234803 | 16 | 316 | 1.6 | 4.8 | 0.00 | 0.00 | 0.00 | 50 | 1017.3 |
| 20260503234703 | 17 | 313 | 1.6 | 4.8 | 0.00 | 0.00 | 0.00 | 50 | 1017.4 |
| 20260503234603 | 17 | 310 | 1.6 | 4.8 | 0.00 | 0.00 | 0.00 | 49 | 1017.3 |
| 20260503234503 | 17 | 300 | 1.6 | 4.8 | 0.00 | 0.00 | 0.00 | 49 | 1017.3 |
| 20260503234403 | 17 | 297 | 1.6 | 4.8 | 0.00 | 0.00 | 0.00 | 49 | 1017.4 |
| 20260503234303 | 17 | 292 | 1.6 | 6.4 | 0.00 | 0.00 | 0.00 | 49 | 1017.4 |
| 20260503234203 | 17 | 288 | 1.6 | 6.4 | 0.00 | 0.00 | 0.00 | 49 | 1017.4 |
| 20260503234103 | 17 | 286 | 1.6 | 6.4 | 0.00 | 0.00 | 0.00 | 49 | 1017.4 |
| 20260503234003 | 17 | 282 | 1.6 | 6.4 | 0.00 | 0.00 | 0.00 | 49 | 1017.4 |
| 20260503233903 | 17 | 283 | 1.6 | 6.4 | 0.00 | 0.00 | 0.00 | 49 | 1017.4 |
| 20260503233803 | 17 | 285 | 1.6 | 6.4 | 0.00 | 0.00 | 0.00 | 49 | 1017.4 |
| 20260503233703 | 17 | 287 | 3.2 | 6.4 | 0.00 | 0.00 | 0.00 | 49 | 1017.5 |
| 20260503233603 | 17 | 285 | 3.2 | 6.4 | 0.00 | 0.00 | 0.00 | 48 | 1017.5 |
| 20260503233503 | 17 | 287 | 3.2 | 6.4 | 0.00 | 0.00 | 0.00 | 48 | 1017.5 |
| 20260503233403 | 17 | 285 | 3.2 | 9.7 | 0.00 | 0.00 | 0.00 | 48 | 1017.5 |
| 20260503233303 | 17 | 287 | 3.2 | 9.7 | 0.00 | 0.00 | 0.00 | 49 | 1017.5 |
| 20260503233204 | 17 | 287 | 3.2 | 9.7 | 0.00 | 0.00 | 0.00 | 48 | 1017.4 |
| 20260503233103 | 17 | 286 | 3.2 | 9.7 | 0.00 | 0.00 | 0.00 | 48 | 1017.4 |
| 20260503233003 | 17 | 286 | 3.2 | 9.7 | 0.00 | 0.00 | 0.00 | 48 | 1017.4 |
| 20260503232904 | 17 | 284 | 3.2 | 9.7 | 0.00 | 0.00 | 0.00 | 48 | 1017.6 |
| 20260503232803 | 17 | 280 | 3.2 | 9.7 | 0.00 | 0.00 | 0.00 | 48 | 1017.5 |
| 20260503232703 | 17 | 278 | 4.8 | 9.7 | 0.00 | 0.00 | 0.00 | 48 | 1017.5 |
| 20260503232604 | 17 | 278 | 4.8 | 9.7 | 0.00 | 0.00 | 0.00 | 48 | 1017.5 |
| 20260503232503 | 17 | 278 | 4.8 | 9.7 | 0.00 | 0.00 | 0.00 | 48 | 1017.5 |
| 20260503232403 | 17 | 277 | 4.8 | 9.7 | 0.00 | 0.00 | 0.00 | 48 | 1017.6 |
| 20260503232305 | 17 | 277 | 4.8 | 9.7 | 0.00 | 0.00 | 0.00 | 48 | 1017.6 |
| 20260503232203 | 17 | 276 | 4.8 | 9.7 | 0.00 | 0.00 | 0.00 | 48 | 1017.6 |
| 20260503232103 | 17 | 277 | 4.8 | 9.7 | 0.00 | 0.00 | 0.00 | 48 | 1017.6 |
| 20260503232003 | 17 | 277 | 4.8 | 9.7 | 0.00 | 0.00 | 0.00 | 48 | 1017.6 |
| 20260503231903 | 17 | 277 | 4.8 | 9.7 | 0.00 | 0.00 | 0.00 | 48 | 1017.6 |
| 20260503231803 | 17 | 279 | 4.8 | 9.7 | 0.00 | 0.00 | 0.00 | 48 | 1017.6 |
| 20260503231703 | 17 | 281 | 3.2 | 9.7 | 0.00 | 0.00 | 0.00 | 48 | 1017.6 |
| 20260503231603 | 17 | 282 | 3.2 | 9.7 | 0.00 | 0.00 | 0.00 | 48 | 1017.6 |
| 20260503231503 | 17 | 283 | 3.2 | 9.7 | 0.00 | 0.00 | 0.00 | 49 | 1017.7 |
| 20260503231403 | 17 | 284 | 3.2 | 9.7 | 0.00 | 0.00 | 0.00 | 49 | 1017.7 |
| 20260503231303 | 17 | 282 | 3.2 | 9.7 | 0.00 | 0.00 | 0.00 | 49 | 1017.7 |
| 20260503231203 | 17 | 284 | 3.2 | 9.7 | 0.00 | 0.00 | 0.00 | 49 | 1017.7 |
| 20260503231103 | 17 | 284 | 3.2 | 8.0 | 0.00 | 0.00 | 0.00 | 49 | 1017.7 |
| 20260503231003 | 17 | 286 | 3.2 | 8.0 | 0.00 | 0.00 | 0.00 | 49 | 1017.7 |
| 20260503230903 | 17 | 286 | 3.2 | 6.4 | 0.00 | 0.00 | 0.00 | 49 | 1017.7 |
| 20260503230803 | 17 | 287 | 3.2 | 6.4 | 0.00 | 0.00 | 0.00 | 49 | 1017.7 |
| 20260503230703 | 17 | 288 | 1.6 | 6.4 | 0.00 | 0.00 | 0.00 | 49 | 1017.7 |
| 20260503230603 | 17 | 290 | 1.6 | 6.4 | 0.00 | 0.00 | 0.00 | 49 | 1017.7 |
| 20260503230503 | 17 | 292 | 1.6 | 6.4 | 0.00 | 0.00 | 0.00 | 49 | 1017.6 |
| 20260503230403 | 17 | 295 | 1.6 | 6.4 | 0.00 | 0.00 | 0.00 | 49 | 1017.6 |
| 20260503230303 | 17 | 296 | 1.6 | 6.4 | 0.00 | 0.00 | 0.00 | 49 | 1017.6 |
| 20260503230203 | 17 | 295 | 1.6 | 6.4 | 0.00 | 0.00 | 0.00 | 49 | 1017.6 |
| 20260503230103 | 17 | 293 | 1.6 | 6.4 | 0.00 | 0.00 | 0.00 | 49 | 1017.7 |
| 20260503230004 | 17 | 293 | 1.6 | 6.4 | 0.00 | 0.00 | 0.00 | 49 | 1017.7 |
| 20260503225903 | 17 | 296 | 1.6 | 4.8 | 0.00 | 0.00 | 0.00 | 49 | 1017.7 |
| 20260503225803 | 17 | 297 | 1.6 | 4.8 | 0.00 | 0.00 | 0.00 | 49 | 1017.7 |
| 20260503225703 | 17 | 299 | 1.6 | 4.8 | 0.00 | 0.00 | 0.00 | 49 | 1017.8 |
| 20260503225603 | 17 | 300 | 1.6 | 4.8 | 0.00 | 0.00 | 0.00 | 49 | 1017.8 |
| 20260503225503 | 17 | 301 | 1.6 | 4.8 | 0.00 | 0.00 | 0.00 | 49 | 1017.8 |
| 20260503225403 | 17 | 302 | 1.6 | 4.8 | 0.00 | 0.00 | 0.00 | 49 | 1017.8 |
| 20260503225304 | 17 | 304 | 1.6 | 4.8 | 0.00 | 0.00 | 0.00 | 49 | 1017.7 |
| 20260503225203 | 17 | 308 | 1.6 | 4.8 | 0.00 | 0.00 | 0.00 | 49 | 1017.7 |
| 20260503225103 | 17 | 309 | 1.6 | 4.8 | 0.00 | 0.00 | 0.00 | 49 | 1017.7 |
| 20260503225004 | 17 | 307 | 1.6 | 4.8 | 0.00 | 0.00 | 0.00 | 49 | 1017.8 |
| 20260503224904 | 17 | 303 | 1.6 | 4.8 | 0.00 | 0.00 | 0.00 | 49 | 1017.8 |
| 20260503224803 | 17 | 302 | 1.6 | 4.8 | 0.00 | 0.00 | 0.00 | 49 | 1017.8 |
| 20260503224703 | 17 | 300 | 1.6 | 4.8 | 0.00 | 0.00 | 0.00 | 49 | 1017.7 |
| 20260503224603 | 17 | 298 | 1.6 | 4.8 | 0.00 | 0.00 | 0.00 | 49 | 1017.7 |
| 20260503224503 | 17 | 297 | 1.6 | 4.8 | 0.00 | 0.00 | 0.00 | 49 | 1017.7 |
| 20260503224404 | 17 | 296 | 1.6 | 4.8 | 0.00 | 0.00 | 0.00 | 49 | 1017.7 |
| 20260503224303 | 17 | 296 | 1.6 | 4.8 | 0.00 | 0.00 | 0.00 | 49 | 1017.7 |
| 20260503224203 | 17 | 295 | 1.6 | 4.8 | 0.00 | 0.00 | 0.00 | 49 | 1017.8 |
| 20260503224103 | 17 | 298 | 1.6 | 4.8 | 0.00 | 0.00 | 0.00 | 49 | 1017.8 |
| 20260503224003 | 17 | 303 | 1.6 | 4.8 | 0.00 | 0.00 | 0.00 | 49 | 1017.8 |
| 20260503223903 | 17 | 308 | 1.6 | 4.8 | 0.00 | 0.00 | 0.00 | 49 | 1017.8 |
| 20260503223803 | 17 | 312 | 1.6 | 4.8 | 0.00 | 0.00 | 0.00 | 49 | 1017.8 |
| 20260503223703 | 17 | 316 | 1.6 | 4.8 | 0.00 | 0.00 | 0.00 | 49 | 1017.8 |
| 20260503223603 | 17 | 318 | 1.6 | 4.8 | 0.00 | 0.00 | 0.00 | 49 | 1017.8 |
| 20260503223503 | 17 | 319 | 1.6 | 3.2 | 0.00 | 0.00 | 0.00 | 49 | 1017.8 |
| 20260503223403 | 17 | 312 | 1.6 | 3.2 | 0.00 | 0.00 | 0.00 | 49 | 1017.7 |
| 20260503223303 | 17 | 308 | 1.6 | 3.2 | 0.00 | 0.00 | 0.00 | 49 | 1017.7 |
| 20260503223203 | 17 | 307 | 1.6 | 3.2 | 0.00 | 0.00 | 0.00 | 49 | 1017.7 |
| 20260503223103 | 17 | 306 | 1.6 | 3.2 | 0.00 | 0.00 | 0.00 | 49 | 1017.7 |
| 20260503223003 | 17 | 303 | 1.6 | 3.2 | 0.00 | 0.00 | 0.00 | 49 | 1017.7 |
| 20260503222903 | 17 | 301 | 1.6 | 3.2 | 0.00 | 0.00 | 0.00 | 49 | 1017.8 |
| 20260503222803 | 17 | 303 | 1.6 | 3.2 | 0.00 | 0.00 | 0.00 | 49 | 1017.8 |
| 20260503222703 | 17 | 303 | 1.6 | 3.2 | 0.00 | 0.00 | 0.00 | 48 | 1017.7 |
| 20260503222603 | 17 | 304 | 1.6 | 3.2 | 0.00 | 0.00 | 0.00 | 48 | 1017.8 |
| 20260503222503 | 17 | 304 | 1.6 | 3.2 | 0.00 | 0.00 | 0.00 | 48 | 1017.8 |
| 20260503222403 | 17 | 312 | 1.6 | 3.2 | 0.00 | 0.00 | 0.00 | 48 | 1017.7 |
| 20260503222304 | 17 | 316 | 1.6 | 3.2 | 0.00 | 0.00 | 0.00 | 48 | 1017.7 |
| 20260503222203 | 17 | 317 | 1.6 | 3.2 | 0.00 | 0.00 | 0.00 | 48 | 1017.7 |
| 20260503222103 | 17 | 318 | 1.6 | 3.2 | 0.00 | 0.00 | 0.00 | 48 | 1017.8 |
| 20260503222003 | 17 | 318 | 1.6 | 4.8 | 0.00 | 0.00 | 0.00 | 48 | 1017.8 |
| 20260503221903 | 17 | 314 | 1.6 | 4.8 | 0.00 | 0.00 | 0.00 | 48 | 1017.7 |
| 20260503221803 | 17 | 310 | 1.6 | 6.4 | 0.00 | 0.00 | 0.00 | 48 | 1017.7 |
| 20260503221703 | 17 | 307 | 1.6 | 6.4 | 0.00 | 0.00 | 0.00 | 48 | 1017.7 |
| 20260503221603 | 17 | 303 | 1.6 | 6.4 | 0.00 | 0.00 | 0.00 | 48 | 1017.7 |
| 20260503221503 | 17 | 298 | 1.6 | 6.4 | 0.00 | 0.00 | 0.00 | 48 | 1017.7 |
| 20260503221403 | 17 | 296 | 1.6 | 6.4 | 0.00 | 0.00 | 0.00 | 47 | 1017.7 |
| 20260503221303 | 17 | 295 | 1.6 | 6.4 | 0.00 | 0.00 | 0.00 | 47 | 1017.7 |
| 20260503221203 | 17 | 293 | 3.2 | 6.4 | 0.00 | 0.00 | 0.00 | 47 | 1017.7 |
| 20260503221103 | 17 | 291 | 3.2 | 6.4 | 0.00 | 0.00 | 0.00 | 47 | 1017.7 |
| 20260503221003 | 17 | 289 | 3.2 | 6.4 | 0.00 | 0.00 | 0.00 | 47 | 1017.7 |
| 20260503220903 | 17 | 289 | 3.2 | 6.4 | 0.00 | 0.00 | 0.00 | 47 | 1017.7 |
| 20260503220803 | 17 | 286 | 1.6 | 4.8 | 0.00 | 0.00 | 0.00 | 47 | 1017.7 |
| 20260503220703 | 17 | 283 | 3.2 | 6.4 | 0.00 | 0.00 | 0.00 | 47 | 1017.7 |
| 20260503220603 | 17 | 282 | 3.2 | 6.4 | 0.00 | 0.00 | 0.00 | 47 | 1017.7 |
| 20260503220503 | 17 | 282 | 3.2 | 6.4 | 0.00 | 0.00 | 0.00 | 47 | 1017.7 |
| 20260503220403 | 17 | 282 | 3.2 | 6.4 | 0.00 | 0.00 | 0.00 | 47 | 1017.7 |
| 20260503220303 | 17 | 281 | 3.2 | 6.4 | 0.00 | 0.00 | 0.00 | 47 | 1017.7 |
| 20260503220203 | 17 | 281 | 3.2 | 6.4 | 0.00 | 0.00 | 0.00 | 47 | 1017.7 |
| 20260503220106 | 17 | 282 | 3.2 | 6.4 | 0.00 | 0.00 | 0.00 | 47 | 1017.7 |
| 20260503220030 | 17 | 281 | 1.6 | 6.4 | 0.00 | 0.00 | 0.00 | 47 | 1017.7 |
| 20260503215903 | 17 | 282 | 1.6 | 6.4 | 0.00 | 0.00 | 0.00 | 47 | 1017.7 |
| 20260503215803 | 17 | 283 | 1.6 | 6.4 | 0.00 | 0.00 | 0.00 | 47 | 1017.6 |
| 20260503215703 | 17 | 283 | 1.6 | 4.8 | 0.00 | 0.00 | 0.00 | 47 | 1017.6 |
| 20260503215603 | 17 | 285 | 1.6 | 4.8 | 0.00 | 0.00 | 0.00 | 47 | 1017.7 |
| 20260503215503 | 17 | 286 | 1.6 | 4.8 | 0.00 | 0.00 | 0.00 | 48 | 1017.7 |
| 20260503215404 | 17 | 284 | 1.6 | 4.8 | 0.00 | 0.00 | 0.00 | 47 | 1017.7 |
| 20260503215304 | 17 | 284 | 1.6 | 4.8 | 0.00 | 0.00 | 0.00 | 48 | 1017.6 |
| 20260503215203 | 17 | 283 | 1.6 | 6.4 | 0.00 | 0.00 | 0.00 | 48 | 1017.6 |
| 20260503215103 | 17 | 282 | 1.6 | 6.4 | 0.00 | 0.00 | 0.00 | 47 | 1017.6 |
| 20260503215003 | 17 | 281 | 1.6 | 6.4 | 0.00 | 0.00 | 0.00 | 47 | 1017.6 |
| 20260503214903 | 17 | 280 | 1.6 | 6.4 | 0.00 | 0.00 | 0.00 | 48 | 1017.6 |
| 20260503214803 | 17 | 280 | 1.6 | 6.4 | 0.00 | 0.00 | 0.00 | 47 | 1017.5 |
| 20260503214703 | 17 | 282 | 1.6 | 6.4 | 0.00 | 0.00 | 0.00 | 47 | 1017.5 |
| 20260503214603 | 17 | 284 | 1.6 | 6.4 | 0.00 | 0.00 | 0.00 | 47 | 1017.6 |
| 20260503214503 | 18 | 284 | 1.6 | 6.4 | 0.00 | 0.00 | 0.00 | 47 | 1017.5 |
| 20260503214403 | 17 | 286 | 1.6 | 6.4 | 0.00 | 0.00 | 0.00 | 48 | 1017.5 |
| 20260503214303 | 18 | 288 | 3.2 | 6.4 | 0.00 | 0.00 | 0.00 | 48 | 1017.6 |
| 20260503214203 | 18 | 290 | 1.6 | 6.4 | 0.00 | 0.00 | 0.00 | 48 | 1017.6 |
| 20260503214103 | 18 | 291 | 3.2 | 6.4 | 0.00 | 0.00 | 0.00 | 47 | 1017.5 |
| 20260503214003 | 18 | 293 | 3.2 | 6.4 | 0.00 | 0.00 | 0.00 | 48 | 1017.5 |
| 20260503213903 | 18 | 294 | 3.2 | 6.4 | 0.00 | 0.00 | 0.00 | 48 | 1017.5 |
| 20260503213803 | 18 | 294 | 3.2 | 6.4 | 0.00 | 0.00 | 0.00 | 48 | 1017.5 |
| 20260503213703 | 18 | 293 | 3.2 | 6.4 | 0.00 | 0.00 | 0.00 | 47 | 1017.5 |
| 20260503213603 | 18 | 291 | 3.2 | 6.4 | 0.00 | 0.00 | 0.00 | 47 | 1017.5 |
| 20260503213503 | 18 | 291 | 3.2 | 6.4 | 0.00 | 0.00 | 0.00 | 47 | 1017.6 |
| 20260503213403 | 18 | 289 | 3.2 | 6.4 | 0.00 | 0.00 | 0.00 | 47 | 1017.6 |
| 20260503213303 | 18 | 288 | 3.2 | 6.4 | 0.00 | 0.00 | 0.00 | 47 | 1017.5 |
| 20260503213203 | 18 | 289 | 3.2 | 6.4 | 0.00 | 0.00 | 0.00 | 47 | 1017.4 |
| 20260503213103 | 18 | 287 | 3.2 | 6.4 | 0.00 | 0.00 | 0.00 | 47 | 1017.4 |
| 20260503213003 | 18 | 286 | 3.2 | 6.4 | 0.00 | 0.00 | 0.00 | 47 | 1017.6 |
| 20260503212903 | 18 | 286 | 3.2 | 6.4 | 0.00 | 0.00 | 0.00 | 47 | 1017.6 |
| 20260503212803 | 18 | 285 | 3.2 | 6.4 | 0.00 | 0.00 | 0.00 | 47 | 1017.5 |
| 20260503212703 | 18 | 282 | 3.2 | 6.4 | 0.00 | 0.00 | 0.00 | 47 | 1017.5 |
| 20260503212603 | 18 | 279 | 3.2 | 6.4 | 0.00 | 0.00 | 0.00 | 47 | 1017.5 |
| 20260503212503 | 18 | 278 | 3.2 | 6.4 | 0.00 | 0.00 | 0.00 | 47 | 1017.5 |
| 20260503212403 | 18 | 278 | 3.2 | 6.4 | 0.00 | 0.00 | 0.00 | 47 | 1017.5 |
| 20260503212304 | 18 | 277 | 3.2 | 6.4 | 0.00 | 0.00 | 0.00 | 47 | 1017.5 |
| 20260503212203 | 18 | 273 | 3.2 | 6.4 | 0.00 | 0.00 | 0.00 | 48 | 1017.5 |
| 20260503212103 | 18 | 272 | 3.2 | 6.4 | 0.00 | 0.00 | 0.00 | 47 | 1017.5 |
| 20260503212003 | 18 | 270 | 3.2 | 6.4 | 0.00 | 0.00 | 0.00 | 48 | 1017.5 |
| 20260503211903 | 18 | 269 | 3.2 | 6.4 | 0.00 | 0.00 | 0.00 | 48 | 1017.5 |
| 20260503211803 | 18 | 268 | 3.2 | 6.4 | 0.00 | 0.00 | 0.00 | 48 | 1017.5 |
| 20260503211703 | 18 | 269 | 3.2 | 6.4 | 0.00 | 0.00 | 0.00 | 47 | 1017.4 |
| 20260503211603 | 18 | 270 | 3.2 | 6.4 | 0.00 | 0.00 | 0.00 | 47 | 1017.4 |
| 20260503211503 | 18 | 271 | 3.2 | 4.8 | 0.00 | 0.00 | 0.00 | 47 | 1017.4 |
| 20260503211403 | 18 | 271 | 3.2 | 4.8 | 0.00 | 0.00 | 0.00 | 47 | 1017.4 |
| 20260503211303 | 18 | 270 | 3.2 | 4.8 | 0.00 | 0.00 | 0.00 | 47 | 1017.4 |
| 20260503211203 | 18 | 272 | 3.2 | 4.8 | 0.00 | 0.00 | 0.00 | 47 | 1017.4 |
| 20260503211103 | 18 | 273 | 3.2 | 4.8 | 0.00 | 0.00 | 0.00 | 47 | 1017.4 |
| 20260503211003 | 18 | 275 | 3.2 | 4.8 | 0.00 | 0.00 | 0.00 | 47 | 1017.3 |
| 20260503210903 | 18 | 274 | 3.2 | 4.8 | 0.00 | 0.00 | 0.00 | 47 | 1017.4 |
| 20260503210803 | 18 | 275 | 3.2 | 4.8 | 0.00 | 0.00 | 0.00 | 47 | 1017.4 |
| 20260503210703 | 18 | 276 | 3.2 | 4.8 | 0.00 | 0.00 | 0.00 | 47 | 1017.3 |
| 20260503210603 | 18 | 277 | 3.2 | 6.4 | 0.00 | 0.00 | 0.00 | 47 | 1017.3 |
| 20260503210503 | 18 | 275 | 3.2 | 6.4 | 0.00 | 0.00 | 0.00 | 47 | 1017.4 |
| 20260503210403 | 18 | 276 | 3.2 | 6.4 | 0.00 | 0.00 | 0.00 | 47 | 1017.3 |
| 20260503210303 | 18 | 276 | 3.2 | 6.4 | 0.00 | 0.00 | 0.00 | 47 | 1017.3 |
| 20260503210203 | 18 | 276 | 3.2 | 6.4 | 0.00 | 0.00 | 0.00 | 47 | 1017.4 |
| 20260503210103 | 18 | 276 | 3.2 | 6.4 | 0.00 | 0.00 | 0.00 | 47 | 1017.4 |
| 20260503210005 | 18 | 274 | 3.2 | 8.0 | 0.00 | 0.00 | 0.00 | 47 | 1017.4 |
| 20260503205904 | 18 | 275 | 3.2 | 8.0 | 0.00 | 0.00 | 0.00 | 47 | 1017.4 |
| 20260503205803 | 18 | 274 | 3.2 | 8.0 | 0.00 | 0.00 | 0.00 | 47 | 1017.4 |
| 20260503205703 | 18 | 273 | 3.2 | 8.0 | 0.00 | 0.00 | 0.00 | 47 | 1017.4 |
| 20260503205603 | 18 | 274 | 3.2 | 8.0 | 0.00 | 0.00 | 0.00 | 47 | 1017.4 |
| 20260503205503 | 18 | 274 | 3.2 | 8.0 | 0.00 | 0.00 | 0.00 | 47 | 1017.4 |
| 20260503205403 | 18 | 273 | 3.2 | 8.0 | 0.00 | 0.00 | 0.00 | 47 | 1017.4 |
| 20260503205304 | 18 | 273 | 3.2 | 8.0 | 0.00 | 0.00 | 0.00 | 47 | 1017.4 |
| 20260503205203 | 18 | 274 | 3.2 | 8.0 | 0.00 | 0.00 | 0.00 | 47 | 1017.3 |
| 20260503205103 | 18 | 274 | 3.2 | 8.0 | 0.00 | 0.00 | 0.00 | 47 | 1017.4 |
| 20260503205003 | 18 | 276 | 3.2 | 8.0 | 0.00 | 0.00 | 0.00 | 47 | 1017.4 |
| 20260503204903 | 18 | 276 | 3.2 | 6.4 | 0.00 | 0.00 | 0.00 | 47 | 1017.3 |
| 20260503204803 | 18 | 276 | 3.2 | 6.4 | 0.00 | 0.00 | 0.00 | 47 | 1017.3 |
| 20260503204703 | 18 | 276 | 3.2 | 6.4 | 0.00 | 0.00 | 0.00 | 47 | 1017.4 |
| 20260503204603 | 18 | 277 | 3.2 | 6.4 | 0.00 | 0.00 | 0.00 | 47 | 1017.4 |
| 20260503204503 | 18 | 278 | 3.2 | 6.4 | 0.00 | 0.00 | 0.00 | 47 | 1017.4 |
| 20260503204403 | 18 | 279 | 3.2 | 8.0 | 0.00 | 0.00 | 0.00 | 47 | 1017.4 |
| 20260503204303 | 18 | 278 | 3.2 | 8.0 | 0.00 | 0.00 | 0.00 | 47 | 1017.4 |
| 20260503204203 | 18 | 279 | 3.2 | 8.0 | 0.00 | 0.00 | 0.00 | 47 | 1017.4 |
| 20260503204103 | 18 | 277 | 3.2 | 8.0 | 0.00 | 0.00 | 0.00 | 47 | 1017.3 |
| 20260503204003 | 18 | 278 | 3.2 | 9.7 | 0.00 | 0.00 | 0.00 | 47 | 1017.3 |
| 20260503203903 | 18 | 278 | 3.2 | 9.7 | 0.00 | 0.00 | 0.00 | 47 | 1017.3 |
| 20260503203803 | 18 | 278 | 4.8 | 9.7 | 0.00 | 0.00 | 0.00 | 47 | 1017.3 |
| 20260503203703 | 18 | 276 | 4.8 | 9.7 | 0.00 | 0.00 | 0.00 | 47 | 1017.3 |
| 20260503203603 | 18 | 276 | 4.8 | 9.7 | 0.00 | 0.00 | 0.00 | 47 | 1017.3 |
| 20260503203503 | 18 | 273 | 3.2 | 9.7 | 0.00 | 0.00 | 0.00 | 47 | 1017.3 |
| 20260503203403 | 18 | 273 | 3.2 | 9.7 | 0.00 | 0.00 | 0.00 | 47 | 1017.3 |
| 20260503203303 | 18 | 272 | 4.8 | 9.7 | 0.00 | 0.00 | 0.00 | 47 | 1017.4 |
| 20260503203203 | 18 | 271 | 4.8 | 9.7 | 0.00 | 0.00 | 0.00 | 47 | 1017.4 |
| 20260503203103 | 18 | 270 | 4.8 | 9.7 | 0.00 | 0.00 | 0.00 | 47 | 1017.3 |
| 20260503203003 | 18 | 268 | 4.8 | 9.7 | 0.00 | 0.00 | 0.00 | 47 | 1017.3 |
| 20260503202903 | 18 | 267 | 4.8 | 9.7 | 0.00 | 0.00 | 0.00 | 47 | 1017.4 |
| 20260503202803 | 18 | 267 | 3.2 | 9.7 | 0.00 | 0.00 | 0.00 | 47 | 1017.3 |
| 20260503202703 | 18 | 270 | 3.2 | 9.7 | 0.00 | 0.00 | 0.00 | 47 | 1017.3 |
| 20260503202603 | 18 | 269 | 3.2 | 9.7 | 0.00 | 0.00 | 0.00 | 46 | 1017.3 |
| 20260503202503 | 18 | 271 | 3.2 | 9.7 | 0.00 | 0.00 | 0.00 | 46 | 1017.4 |
| 20260503202403 | 18 | 271 | 3.2 | 9.7 | 0.00 | 0.00 | 0.00 | 46 | 1017.4 |
| 20260503202304 | 18 | 272 | 3.2 | 6.4 | 0.00 | 0.00 | 0.00 | 47 | 1017.4 |
| 20260503202203 | 18 | 274 | 3.2 | 6.4 | 0.00 | 0.00 | 0.00 | 47 | 1017.4 |
| 20260503202103 | 18 | 275 | 3.2 | 6.4 | 0.00 | 0.00 | 0.00 | 46 | 1017.4 |
| 20260503202003 | 18 | 277 | 3.2 | 6.4 | 0.00 | 0.00 | 0.00 | 46 | 1017.3 |
| 20260503201903 | 18 | 277 | 3.2 | 6.4 | 0.00 | 0.00 | 0.00 | 46 | 1017.3 |
| 20260503201803 | 18 | 277 | 3.2 | 6.4 | 0.00 | 0.00 | 0.00 | 46 | 1017.3 |
| 20260503201703 | 18 | 275 | 3.2 | 6.4 | 0.00 | 0.00 | 0.00 | 46 | 1017.3 |
| 20260503201603 | 18 | 273 | 3.2 | 6.4 | 0.00 | 0.00 | 0.00 | 46 | 1017.3 |
| 20260503201503 | 18 | 271 | 3.2 | 6.4 | 0.00 | 0.00 | 0.00 | 46 | 1017.1 |
| 20260503201403 | 18 | 272 | 3.2 | 6.4 | 0.00 | 0.00 | 0.00 | 46 | 1017.1 |
| 20260503201303 | 18 | 272 | 3.2 | 6.4 | 0.00 | 0.00 | 0.00 | 46 | 1017.2 |
| 20260503201203 | 18 | 271 | 3.2 | 6.4 | 0.00 | 0.00 | 0.00 | 46 | 1017.2 |
| 20260503201103 | 18 | 271 | 3.2 | 6.4 | 0.00 | 0.00 | 0.00 | 46 | 1017.2 |
| 20260503201003 | 18 | 271 | 3.2 | 6.4 | 0.00 | 0.00 | 0.00 | 46 | 1017.2 |
| 20260503200903 | 18 | 274 | 3.2 | 6.4 | 0.00 | 0.00 | 0.00 | 46 | 1017.2 |
| 20260503200803 | 18 | 273 | 3.2 | 6.4 | 0.00 | 0.00 | 0.00 | 46 | 1017.2 |
| 20260503200703 | 18 | 273 | 3.2 | 6.4 | 0.00 | 0.00 | 0.00 | 46 | 1017.2 |
| 20260503200603 | 18 | 274 | 3.2 | 6.4 | 0.00 | 0.00 | 0.00 | 45 | 1017.2 |
| 20260503200503 | 18 | 274 | 1.6 | 6.4 | 0.00 | 0.00 | 0.00 | 45 | 1017.1 |
| 20260503200403 | 18 | 272 | 3.2 | 6.4 | 0.00 | 0.00 | 0.00 | 45 | 1017.1 |
| 20260503200303 | 18 | 271 | 3.2 | 6.4 | 0.00 | 0.00 | 0.00 | 45 | 1017.1 |
| 20260503200203 | 18 | 269 | 3.2 | 6.4 | 0.00 | 0.00 | 0.00 | 45 | 1017.2 |
| 20260503200004 | 18 | 265 | 3.2 | 6.4 | 0.00 | 0.00 | 0.00 | 45 | 1017.2 |
| 20260503195903 | 18 | 259 | 3.2 | 4.8 | 0.00 | 0.00 | 0.00 | 44 | 1017.2 |
| 20260503195803 | 18 | 257 | 3.2 | 4.8 | 0.00 | 0.00 | 0.00 | 44 | 1017.3 |
| 20260503195703 | 18 | 256 | 3.2 | 6.4 | 0.00 | 0.00 | 0.00 | 44 | 1017.2 |
| 20260503195603 | 18 | 257 | 3.2 | 6.4 | 0.00 | 0.00 | 0.00 | 44 | 1017.2 |
| 20260503195503 | 18 | 256 | 3.2 | 6.4 | 0.00 | 0.00 | 0.00 | 44 | 1017.1 |
| 20260503195403 | 18 | 254 | 3.2 | 6.4 | 0.00 | 0.00 | 0.00 | 44 | 1017.1 |
| 20260503195304 | 18 | 252 | 3.2 | 6.4 | 0.00 | 0.00 | 0.00 | 44 | 1017.1 |
| 20260503195203 | 19 | 252 | 3.2 | 6.4 | 0.00 | 0.00 | 0.00 | 44 | 1017.1 |
| 20260503195103 | 19 | 251 | 3.2 | 6.4 | 0.00 | 0.00 | 0.00 | 44 | 1017.1 |
| 20260503195003 | 19 | 250 | 3.2 | 6.4 | 0.00 | 0.00 | 0.00 | 44 | 1017.1 |
| 20260503194903 | 19 | 250 | 3.2 | 6.4 | 0.00 | 0.00 | 0.00 | 44 | 1017.1 |
| 20260503194803 | 19 | 251 | 3.2 | 6.4 | 0.00 | 0.00 | 0.00 | 43 | 1017.1 |
| 20260503194703 | 19 | 250 | 3.2 | 6.4 | 0.00 | 0.00 | 0.00 | 43 | 1017.0 |
| 20260503194603 | 19 | 250 | 3.2 | 6.4 | 0.00 | 0.00 | 0.00 | 43 | 1017.0 |
| 20260503194503 | 19 | 248 | 3.2 | 6.4 | 0.00 | 0.00 | 0.00 | 43 | 1017.1 |
| 20260503194403 | 19 | 246 | 3.2 | 6.4 | 0.00 | 0.00 | 0.00 | 43 | 1017.1 |
| 20260503194303 | 19 | 246 | 3.2 | 6.4 | 0.00 | 0.00 | 0.00 | 43 | 1017.1 |
| 20260503194203 | 19 | 242 | 3.2 | 6.4 | 0.00 | 0.00 | 0.00 | 43 | 1017.1 |
| 20260503194103 | 19 | 238 | 3.2 | 6.4 | 0.00 | 0.00 | 0.00 | 43 | 1017.1 |
| 20260503194003 | 19 | 237 | 3.2 | 6.4 | 0.00 | 0.00 | 0.00 | 43 | 1017.0 |
| 20260503193903 | 19 | 235 | 3.2 | 6.4 | 0.00 | 0.00 | 0.00 | 42 | 1017.0 |
| 20260503193803 | 19 | 233 | 3.2 | 6.4 | 0.00 | 0.00 | 0.00 | 42 | 1017.0 |
| 20260503193703 | 19 | 229 | 3.2 | 6.4 | 0.00 | 0.00 | 0.00 | 42 | 1017.0 |
| 20260503193603 | 19 | 226 | 3.2 | 6.4 | 0.00 | 0.00 | 0.00 | 42 | 1017.0 |
| 20260503193503 | 19 | 226 | 3.2 | 6.4 | 0.00 | 0.00 | 0.00 | 42 | 1017.0 |
| 20260503193403 | 19 | 225 | 3.2 | 6.4 | 0.00 | 0.00 | 0.00 | 42 | 1017.1 |
| 20260503193303 | 20 | 222 | 3.2 | 6.4 | 0.00 | 0.00 | 0.00 | 42 | 1017.1 |
| 20260503193203 | 20 | 221 | 3.2 | 6.4 | 0.00 | 0.00 | 0.00 | 42 | 1017.0 |
| 20260503193103 | 20 | 222 | 3.2 | 4.8 | 0.00 | 0.00 | 0.00 | 42 | 1017.0 |
| 20260503193003 | 20 | 221 | 3.2 | 4.8 | 0.00 | 0.00 | 0.00 | 42 | 1017.0 |
| 20260503192903 | 20 | 221 | 3.2 | 4.8 | 0.00 | 0.00 | 0.00 | 42 | 1016.9 |
| 20260503192803 | 20 | 220 | 3.2 | 4.8 | 0.00 | 0.00 | 0.00 | 42 | 1016.9 |
| 20260503192703 | 20 | 221 | 3.2 | 4.8 | 0.00 | 0.00 | 0.00 | 42 | 1017.0 |
| 20260503192604 | 20 | 220 | 3.2 | 4.8 | 0.00 | 0.00 | 0.00 | 42 | 1016.9 |
| 20260503192503 | 20 | 219 | 3.2 | 4.8 | 0.00 | 0.00 | 0.00 | 41 | 1016.9 |
| 20260503192403 | 20 | 218 | 3.2 | 4.8 | 0.00 | 0.00 | 0.00 | 41 | 1016.9 |
| 20260503192305 | 20 | 218 | 3.2 | 4.8 | 0.00 | 0.00 | 0.00 | 41 | 1016.9 |
| 20260503192203 | 20 | 218 | 3.2 | 4.8 | 0.00 | 0.00 | 0.00 | 41 | 1016.9 |
| 20260503192103 | 20 | 218 | 3.2 | 4.8 | 0.00 | 0.00 | 0.00 | 41 | 1016.8 |
| 20260503192003 | 20 | 219 | 1.6 | 4.8 | 0.00 | 0.00 | 0.00 | 41 | 1016.8 |
| 20260503191903 | 20 | 220 | 1.6 | 4.8 | 0.00 | 0.00 | 0.00 | 41 | 1016.8 |
| 20260503191803 | 20 | 222 | 1.6 | 4.8 | 0.00 | 0.00 | 0.00 | 41 | 1016.8 |
| 20260503191703 | 20 | 223 | 1.6 | 4.8 | 0.00 | 0.00 | 0.00 | 41 | 1016.8 |
| 20260503191603 | 20 | 224 | 1.6 | 4.8 | 0.00 | 0.00 | 0.00 | 41 | 1016.8 |
| 20260503191503 | 20 | 226 | 1.6 | 4.8 | 0.00 | 0.00 | 0.00 | 41 | 1016.8 |
| 20260503191403 | 20 | 232 | 1.6 | 4.8 | 0.00 | 0.00 | 0.00 | 41 | 1016.8 |
| 20260503191303 | 20 | 234 | 1.6 | 4.8 | 0.00 | 0.00 | 0.00 | 41 | 1016.8 |
| 20260503191203 | 20 | 234 | 1.6 | 4.8 | 0.00 | 0.00 | 0.00 | 41 | 1016.8 |
| 20260503191103 | 20 | 233 | 1.6 | 4.8 | 0.00 | 0.00 | 0.00 | 41 | 1016.6 |
| 20260503191003 | 20 | 232 | 1.6 | 4.8 | 0.00 | 0.00 | 0.00 | 41 | 1016.6 |
| 20260503190903 | 20 | 232 | 1.6 | 4.8 | 0.00 | 0.00 | 0.00 | 41 | 1016.6 |
| 20260503190803 | 20 | 230 | 1.6 | 4.8 | 0.00 | 0.00 | 0.00 | 41 | 1016.6 |
| 20260503190703 | 20 | 227 | 1.6 | 4.8 | 0.00 | 0.00 | 0.00 | 41 | 1016.6 |
| 20260503190603 | 20 | 226 | 1.6 | 4.8 | 0.00 | 0.00 | 0.00 | 41 | 1016.6 |
| 20260503190503 | 20 | 226 | 1.6 | 4.8 | 0.00 | 0.00 | 0.00 | 41 | 1016.6 |
| 20260503190403 | 20 | 220 | 1.6 | 4.8 | 0.00 | 0.00 | 0.00 | 41 | 1016.6 |
| 20260503190303 | 20 | 221 | 1.6 | 6.4 | 0.00 | 0.00 | 0.00 | 41 | 1016.6 |
| 20260503190203 | 20 | 222 | 1.6 | 6.4 | 0.00 | 0.00 | 0.00 | 41 | 1016.6 |
| 20260503190004 | 20 | 228 | 3.2 | 6.4 | 0.00 | 0.00 | 0.00 | 41 | 1016.6 |
| 20260503185903 | 20 | 229 | 3.2 | 6.4 | 0.00 | 0.00 | 0.00 | 41 | 1016.6 |
| 20260503185803 | 20 | 231 | 3.2 | 6.4 | 0.00 | 0.00 | 0.00 | 41 | 1016.6 |
| 20260503185703 | 20 | 235 | 3.2 | 6.4 | 0.00 | 0.00 | 0.00 | 41 | 1016.6 |
| 20260503185603 | 20 | 238 | 3.2 | 6.4 | 0.00 | 0.00 | 0.00 | 41 | 1016.5 |
| 20260503185503 | 20 | 241 | 3.2 | 6.4 | 0.00 | 0.00 | 0.00 | 41 | 1016.5 |
| 20260503185403 | 20 | 241 | 3.2 | 6.4 | 0.00 | 0.00 | 0.00 | 41 | 1016.5 |
| 20260503185304 | 20 | 245 | 3.2 | 6.4 | 0.00 | 0.00 | 0.00 | 41 | 1016.5 |
| 20260503185203 | 20 | 246 | 3.2 | 6.4 | 0.00 | 0.00 | 0.00 | 41 | 1016.5 |
| 20260503185103 | 20 | 248 | 3.2 | 6.4 | 0.00 | 0.00 | 0.00 | 41 | 1016.5 |
| 20260503185003 | 20 | 248 | 3.2 | 6.4 | 0.00 | 0.00 | 0.00 | 41 | 1016.5 |
| 20260503184903 | 20 | 247 | 3.2 | 6.4 | 0.00 | 0.00 | 0.00 | 41 | 1016.5 |
| 20260503184803 | 20 | 248 | 3.2 | 6.4 | 0.00 | 0.00 | 0.00 | 41 | 1016.5 |
| 20260503184703 | 20 | 247 | 3.2 | 6.4 | 0.00 | 0.00 | 0.00 | 41 | 1016.5 |
| 20260503184604 | 20 | 246 | 3.2 | 6.4 | 0.00 | 0.00 | 0.00 | 41 | 1016.5 |
| 20260503184503 | 20 | 246 | 4.8 | 6.4 | 0.00 | 0.00 | 0.00 | 41 | 1016.5 |
| 20260503184403 | 20 | 244 | 4.8 | 6.4 | 0.00 | 0.00 | 0.00 | 41 | 1016.5 |
| 20260503184303 | 20 | 243 | 3.2 | 6.4 | 0.00 | 0.00 | 0.00 | 41 | 1016.5 |
| 20260503184203 | 20 | 245 | 4.8 | 8.0 | 0.00 | 0.00 | 0.00 | 41 | 1016.5 |
| 20260503184103 | 20 | 246 | 3.2 | 8.0 | 0.00 | 0.00 | 0.00 | 42 | 1016.5 |
| 20260503184003 | 20 | 245 | 3.2 | 8.0 | 0.00 | 0.00 | 0.00 | 42 | 1016.4 |
| 20260503183903 | 20 | 247 | 4.8 | 8.0 | 0.00 | 0.00 | 0.00 | 42 | 1016.4 |
| 20260503183803 | 20 | 248 | 4.8 | 8.0 | 0.00 | 0.00 | 0.00 | 42 | 1016.5 |
| 20260503183703 | 20 | 250 | 4.8 | 11.3 | 0.00 | 0.00 | 0.00 | 42 | 1016.4 |
| 20260503183603 | 20 | 254 | 4.8 | 11.3 | 0.00 | 0.00 | 0.00 | 42 | 1016.4 |
| 20260503183503 | 20 | 254 | 4.8 | 11.3 | 0.00 | 0.00 | 0.00 | 42 | 1016.4 |
| 20260503183403 | 20 | 257 | 4.8 | 11.3 | 0.00 | 0.00 | 0.00 | 42 | 1016.4 |
| 20260503183303 | 21 | 257 | 4.8 | 11.3 | 0.00 | 0.00 | 0.00 | 42 | 1016.5 |
| 20260503183203 | 21 | 256 | 4.8 | 11.3 | 0.00 | 0.00 | 0.00 | 42 | 1016.3 |
| 20260503183103 | 21 | 251 | 4.8 | 11.3 | 0.00 | 0.00 | 0.00 | 42 | 1016.3 |
| 20260503183003 | 21 | 251 | 4.8 | 11.3 | 0.00 | 0.00 | 0.00 | 42 | 1016.5 |
| 20260503182903 | 21 | 251 | 4.8 | 11.3 | 0.00 | 0.00 | 0.00 | 42 | 1016.3 |
| 20260503182803 | 21 | 250 | 4.8 | 11.3 | 0.00 | 0.00 | 0.00 | 42 | 1016.3 |
| 20260503182703 | 21 | 248 | 4.8 | 9.7 | 0.00 | 0.00 | 0.00 | 42 | 1016.4 |
| 20260503182603 | 21 | 246 | 4.8 | 9.7 | 0.00 | 0.00 | 0.00 | 42 | 1016.4 |
| 20260503182503 | 21 | 246 | 4.8 | 9.7 | 0.00 | 0.00 | 0.00 | 42 | 1016.4 |
| 20260503182403 | 21 | 244 | 4.8 | 9.7 | 0.00 | 0.00 | 0.00 | 42 | 1016.4 |
| 20260503182305 | 21 | 245 | 4.8 | 9.7 | 0.00 | 0.00 | 0.00 | 42 | 1016.4 |
| 20260503182203 | 21 | 246 | 4.8 | 11.3 | 0.00 | 0.00 | 0.00 | 42 | 1016.4 |
| 20260503182103 | 21 | 247 | 4.8 | 12.9 | 0.00 | 0.00 | 0.00 | 42 | 1016.4 |
| 20260503182003 | 21 | 246 | 4.8 | 12.9 | 0.00 | 0.00 | 0.00 | 42 | 1016.4 |
| 20260503181903 | 21 | 246 | 4.8 | 12.9 | 0.00 | 0.00 | 0.00 | 42 | 1016.3 |
| 20260503181803 | 21 | 244 | 4.8 | 14.5 | 0.00 | 0.00 | 0.00 | 42 | 1016.3 |
| 20260503181703 | 21 | 245 | 6.4 | 14.5 | 0.00 | 0.00 | 0.00 | 42 | 1016.4 |
| 20260503181603 | 21 | 245 | 6.4 | 14.5 | 0.00 | 0.00 | 0.00 | 41 | 1016.4 |
| 20260503181504 | 21 | 242 | 6.4 | 14.5 | 0.00 | 0.00 | 0.00 | 41 | 1016.4 |
| 20260503181403 | 21 | 244 | 6.4 | 14.5 | 0.00 | 0.00 | 0.00 | 41 | 1016.5 |
| 20260503181303 | 21 | 245 | 8.0 | 16.1 | 0.00 | 0.00 | 0.00 | 41 | 1016.5 |
| 20260503181203 | 21 | 245 | 8.0 | 17.7 | 0.00 | 0.00 | 0.00 | 41 | 1016.5 |
| 20260503181103 | 21 | 246 | 8.0 | 17.7 | 0.00 | 0.00 | 0.00 | 41 | 1016.4 |
| 20260503181004 | 21 | 247 | 8.0 | 17.7 | 0.00 | 0.00 | 0.00 | 41 | 1016.4 |
| 20260503180903 | 21 | 247 | 8.0 | 17.7 | 0.00 | 0.00 | 0.00 | 41 | 1016.5 |
| 20260503180803 | 21 | 247 | 8.0 | 17.7 | 0.00 | 0.00 | 0.00 | 41 | 1016.5 |
| 20260503180703 | 21 | 247 | 8.0 | 17.7 | 0.00 | 0.00 | 0.00 | 40 | 1016.5 |
| 20260503180603 | 21 | 246 | 8.0 | 17.7 | 0.00 | 0.00 | 0.00 | 40 | 1016.5 |
| 20260503180503 | 21 | 248 | 8.0 | 17.7 | 0.00 | 0.00 | 0.00 | 40 | 1016.5 |
| 20260503180403 | 21 | 247 | 8.0 | 17.7 | 0.00 | 0.00 | 0.00 | 40 | 1016.5 |
| 20260503180303 | 21 | 246 | 8.0 | 17.7 | 0.00 | 0.00 | 0.00 | 41 | 1016.5 |
| 20260503180203 | 21 | 247 | 8.0 | 14.5 | 0.00 | 0.00 | 0.00 | 41 | 1016.6 |
| 20260503180103 | 21 | 247 | 6.4 | 14.5 | 0.00 | 0.00 | 0.00 | 41 | 1016.5 |
| 20260503180004 | 21 | 247 | 6.4 | 14.5 | 0.00 | 0.00 | 0.00 | 41 | 1016.5 |
| 20260503175903 | 21 | 246 | 8.0 | 14.5 | 0.00 | 0.00 | 0.00 | 41 | 1016.5 |
| 20260503175803 | 22 | 247 | 6.4 | 14.5 | 0.00 | 0.00 | 0.00 | 41 | 1016.5 |
| 20260503175703 | 22 | 244 | 6.4 | 14.5 | 0.00 | 0.00 | 0.00 | 41 | 1016.5 |
| 20260503175603 | 22 | 244 | 6.4 | 14.5 | 0.00 | 0.00 | 0.00 | 41 | 1016.5 |
| 20260503175503 | 22 | 243 | 6.4 | 14.5 | 0.00 | 0.00 | 0.00 | 40 | 1016.5 |
| 20260503175403 | 22 | 243 | 6.4 | 14.5 | 0.00 | 0.00 | 0.00 | 40 | 1016.5 |
| 20260503175304 | 22 | 240 | 6.4 | 14.5 | 0.00 | 0.00 | 0.00 | 41 | 1016.5 |
| 20260503175203 | 22 | 240 | 6.4 | 14.5 | 0.00 | 0.00 | 0.00 | 40 | 1016.5 |
| 20260503175103 | 22 | 238 | 6.4 | 14.5 | 0.00 | 0.00 | 0.00 | 40 | 1016.5 |
| 20260503175003 | 22 | 236 | 6.4 | 14.5 | 0.00 | 0.00 | 0.00 | 40 | 1016.5 |
| 20260503174903 | 22 | 235 | 6.4 | 14.5 | 0.00 | 0.00 | 0.00 | 40 | 1016.4 |
| 20260503174803 | 22 | 234 | 6.4 | 14.5 | 0.00 | 0.00 | 0.00 | 40 | 1016.5 |
| 20260503174703 | 22 | 235 | 6.4 | 11.3 | 0.00 | 0.00 | 0.00 | 40 | 1016.5 |
| 20260503174603 | 22 | 233 | 6.4 | 11.3 | 0.00 | 0.00 | 0.00 | 40 | 1016.4 |
| 20260503174503 | 22 | 233 | 6.4 | 11.3 | 0.00 | 0.00 | 0.00 | 40 | 1016.4 |
| 20260503174403 | 22 | 230 | 6.4 | 9.7 | 0.00 | 0.00 | 0.00 | 40 | 1016.3 |
| 20260503174303 | 22 | 228 | 6.4 | 9.7 | 0.00 | 0.00 | 0.00 | 40 | 1016.4 |
| 20260503174203 | 22 | 225 | 6.4 | 9.7 | 0.00 | 0.00 | 0.00 | 40 | 1016.4 |
| 20260503174103 | 22 | 223 | 6.4 | 9.7 | 0.00 | 0.00 | 0.00 | 39 | 1016.3 |
| 20260503174003 | 22 | 221 | 6.4 | 11.3 | 0.00 | 0.00 | 0.00 | 39 | 1016.3 |
| 20260503173903 | 22 | 221 | 6.4 | 12.9 | 0.00 | 0.00 | 0.00 | 39 | 1016.3 |
| 20260503173803 | 22 | 219 | 6.4 | 12.9 | 0.00 | 0.00 | 0.00 | 39 | 1016.4 |
| 20260503173703 | 22 | 218 | 6.4 | 12.9 | 0.00 | 0.00 | 0.00 | 39 | 1016.4 |
| 20260503173603 | 22 | 220 | 6.4 | 14.5 | 0.00 | 0.00 | 0.00 | 39 | 1016.3 |
| 20260503173503 | 22 | 219 | 6.4 | 14.5 | 0.00 | 0.00 | 0.00 | 39 | 1016.3 |
| 20260503173403 | 22 | 219 | 6.4 | 14.5 | 0.00 | 0.00 | 0.00 | 38 | 1016.3 |
| 20260503173303 | 22 | 219 | 6.4 | 14.5 | 0.00 | 0.00 | 0.00 | 39 | 1016.4 |
| 20260503173203 | 22 | 221 | 8.0 | 14.5 | 0.00 | 0.00 | 0.00 | 39 | 1016.4 |
| 20260503173103 | 22 | 222 | 8.0 | 14.5 | 0.00 | 0.00 | 0.00 | 38 | 1016.3 |
| 20260503173003 | 22 | 225 | 6.4 | 14.5 | 0.00 | 0.00 | 0.00 | 38 | 1016.3 |
| 20260503172903 | 22 | 226 | 6.4 | 14.5 | 0.00 | 0.00 | 0.00 | 38 | 1016.3 |
| 20260503172803 | 22 | 227 | 6.4 | 14.5 | 0.00 | 0.00 | 0.00 | 38 | 1016.2 |
| 20260503172703 | 22 | 228 | 6.4 | 14.5 | 0.00 | 0.00 | 0.00 | 38 | 1016.2 |
| 20260503172603 | 22 | 226 | 6.4 | 14.5 | 0.00 | 0.00 | 0.00 | 38 | 1016.2 |
| 20260503172504 | 22 | 227 | 6.4 | 14.5 | 0.00 | 0.00 | 0.00 | 37 | 1016.2 |
| 20260503172403 | 22 | 229 | 6.4 | 14.5 | 0.00 | 0.00 | 0.00 | 37 | 1016.2 |
| 20260503172305 | 22 | 230 | 6.4 | 14.5 | 0.00 | 0.00 | 0.00 | 37 | 1016.3 |
| 20260503172203 | 22 | 227 | 4.8 | 14.5 | 0.00 | 0.00 | 0.00 | 37 | 1016.2 |
| 20260503172103 | 22 | 224 | 4.8 | 14.5 | 0.00 | 0.00 | 0.00 | 37 | 1016.2 |
| 20260503172003 | 22 | 221 | 4.8 | 9.7 | 0.00 | 0.00 | 0.00 | 37 | 1016.2 |
| 20260503171903 | 22 | 219 | 4.8 | 8.0 | 0.00 | 0.00 | 0.00 | 37 | 1016.2 |
| 20260503171804 | 22 | 218 | 4.8 | 8.0 | 0.00 | 0.00 | 0.00 | 37 | 1016.2 |
| 20260503171703 | 22 | 215 | 4.8 | 11.3 | 0.00 | 0.00 | 0.00 | 37 | 1016.2 |
| 20260503171603 | 22 | 213 | 4.8 | 11.3 | 0.00 | 0.00 | 0.00 | 37 | 1016.2 |
| 20260503171503 | 22 | 211 | 4.8 | 11.3 | 0.00 | 0.00 | 0.00 | 37 | 1016.2 |
| 20260503171403 | 22 | 211 | 4.8 | 11.3 | 0.00 | 0.00 | 0.00 | 37 | 1016.2 |
| 20260503171303 | 22 | 210 | 4.8 | 11.3 | 0.00 | 0.00 | 0.00 | 36 | 1016.2 |
| 20260503171203 | 22 | 211 | 6.4 | 11.3 | 0.00 | 0.00 | 0.00 | 36 | 1016.1 |
| 20260503171103 | 22 | 212 | 6.4 | 11.3 | 0.00 | 0.00 | 0.00 | 36 | 1016.1 |
| 20260503171003 | 22 | 210 | 6.4 | 11.3 | 0.00 | 0.00 | 0.00 | 36 | 1016.2 |
| 20260503170903 | 22 | 210 | 6.4 | 11.3 | 0.00 | 0.00 | 0.00 | 36 | 1016.2 |
| 20260503170803 | 22 | 211 | 6.4 | 11.3 | 0.00 | 0.00 | 0.00 | 36 | 1016.2 |
| 20260503170703 | 22 | 212 | 6.4 | 12.9 | 0.00 | 0.00 | 0.00 | 36 | 1016.2 |
| 20260503170603 | 22 | 213 | 6.4 | 12.9 | 0.00 | 0.00 | 0.00 | 36 | 1016.2 |
| 20260503170503 | 22 | 213 | 6.4 | 12.9 | 0.00 | 0.00 | 0.00 | 36 | 1016.2 |
| 20260503170403 | 22 | 213 | 6.4 | 12.9 | 0.00 | 0.00 | 0.00 | 36 | 1016.2 |
| 20260503170303 | 23 | 214 | 6.4 | 12.9 | 0.00 | 0.00 | 0.00 | 36 | 1016.2 |
| 20260503170203 | 23 | 214 | 6.4 | 12.9 | 0.00 | 0.00 | 0.00 | 36 | 1016.2 |
| 20260503170103 | 23 | 214 | 6.4 | 12.9 | 0.00 | 0.00 | 0.00 | 35 | 1016.2 |
| 20260503160203 | 23 | 235 | 4.8 | 11.3 | 0.00 | 0.00 | 0.00 | 32 | 1016.4 |
| 20260503151003 | 24 | 224 | 8.0 | 17.7 | 0.00 | 0.00 | 0.00 | 33 | 1016.9 |
| 20260503150903 | 24 | 223 | 8.0 | 17.7 | 0.00 | 0.00 | 0.00 | 33 | 1017.0 |
| 20260503150803 | 24 | 219 | 8.0 | 17.7 | 0.00 | 0.00 | 0.00 | 34 | 1017.0 |
| 20260503150703 | 24 | 215 | 8.0 | 17.7 | 0.00 | 0.00 | 0.00 | 34 | 1017.0 |
| 20260503150603 | 24 | 210 | 8.0 | 17.7 | 0.00 | 0.00 | 0.00 | 34 | 1017.0 |
| 20260503150503 | 24 | 209 | 8.0 | 14.5 | 0.00 | 0.00 | 0.00 | 34 | 1017.0 |
| 20260503150403 | 24 | 208 | 8.0 | 14.5 | 0.00 | 0.00 | 0.00 | 34 | 1017.0 |
| 20260503150303 | 24 | 208 | 8.0 | 14.5 | 0.00 | 0.00 | 0.00 | 34 | 1016.9 |
| 20260503150203 | 24 | 205 | 6.4 | 14.5 | 0.00 | 0.00 | 0.00 | 35 | 1016.9 |
| 20260503150103 | 24 | 201 | 6.4 | 14.5 | 0.00 | 0.00 | 0.00 | 35 | 1017.0 |
| 20260503140303 | 24 | 215 | 6.4 | 12.9 | 0.00 | 0.00 | 0.00 | 35 | 1017.5 |
| 20260503140204 | 24 | 216 | 6.4 | 12.9 | 0.00 | 0.00 | 0.00 | 35 | 1017.5 |
| 20260503140103 | 24 | 217 | 6.4 | 12.9 | 0.00 | 0.00 | 0.00 | 36 | 1017.5 |
| 20260503131403 | 24 | 217 | 9.7 | 24.1 | 0.00 | 0.00 | 0.00 | 35 | 1018.2 |
| 20260503131303 | 24 | 218 | 9.7 | 24.1 | 0.00 | 0.00 | 0.00 | 35 | 1018.2 |
| 20260503131203 | 24 | 221 | 11.3 | 24.1 | 0.00 | 0.00 | 0.00 | 35 | 1018.2 |
| 20260503131103 | 25 | 221 | 11.3 | 24.1 | 0.00 | 0.00 | 0.00 | 35 | 1018.2 |
| 20260503131003 | 25 | 221 | 11.3 | 24.1 | 0.00 | 0.00 | 0.00 | 35 | 1018.2 |
| 20260503130903 | 25 | 220 | 11.3 | 24.1 | 0.00 | 0.00 | 0.00 | 35 | 1018.2 |
| 20260503130803 | 25 | 217 | 11.3 | 24.1 | 0.00 | 0.00 | 0.00 | 34 | 1018.2 |
| 20260503130703 | 25 | 223 | 11.3 | 20.9 | 0.00 | 0.00 | 0.00 | 34 | 1018.2 |
| 20260503130603 | 25 | 225 | 11.3 | 20.9 | 0.00 | 0.00 | 0.00 | 34 | 1018.2 |
| 20260503130503 | 25 | 226 | 11.3 | 20.9 | 0.00 | 0.00 | 0.00 | 34 | 1018.3 |
| 20260503130403 | 25 | 228 | 11.3 | 20.9 | 0.00 | 0.00 | 0.00 | 33 | 1018.3 |
| 20260503130303 | 25 | 231 | 9.7 | 20.9 | 0.00 | 0.00 | 0.00 | 33 | 1018.3 |
| 20260503130203 | 26 | 235 | 9.7 | 20.9 | 0.00 | 0.00 | 0.00 | 33 | 1018.3 |
| 20260503130103 | 26 | 239 | 9.7 | 19.3 | 0.00 | 0.00 | 0.00 | 33 | 1018.3 |
| 20260503120203 | 23 | 228 | 9.7 | 20.9 | 0.00 | 0.00 | 0.00 | 36 | 1018.6 |